                ,  0.304,  0.404,  0.504,  0.604,  0.704,  0.804,  0.904,  1.004,  1.104,  1.204,  1.304,  1.404,  1.504,  1.604,  1.704,  1.804,  1.904,  2.004,  2.104,  2.204,  2.304,  2.404,  2.504,  2.604,  2.704,  2.804,  2.904,  3.004,  3.104,  3.204,  3.304,  3.404,  3.504,  3.604,  3.704,  3.804,  3.904,  4.004,  4.104,  4.204,  4.304,  4.404,  4.504,  4.604,  4.704,  4.804,  4.904,  5.004,  5.104,  5.204,  5.304,  5.404,  5.504,  5.604,  5.704,  5.804,  5.904,  6.004,  6.104,  6.204,  6.304,  6.404,  6.504,  6.604,  6.704,  6.804,  6.904,  7.004,  7.104,  7.204,  7.304,  7.404,  7.504,  7.604,  7.704,  7.804,  7.904,  8.004,  8.104,  8.204
2013/04/02 00:00,  999.0,   -0.0,   -0.0,   -0.0,    0.0,    0.0,   -0.0,   -0.0,    0.0,   -0.0,    0.0,   -0.0,    0.0,   -0.0,    0.0,    0.0,   -0.0,   -0.0,   -0.0,    0.0,   -0.0,    0.0,    0.0,    0.0,   -0.0,   -0.0,   -0.0,    0.0,   -0.0,   -0.0,   -0.0,    0.0,    0.0,   -0.0,   -0.0,    0.0,   -0.0,    0.0,   -0.0,   -0.1,   -0.0,    0.1,   -0.0,    0.0,   -0.0,    0.0,   -0.1,   -0.0,    0.0,   -0.1,    0.1,    0.0,   -0.0,    0.0,   -0.0,    0.0,    0.0,    0.0,    0.0,    0.0,   -0.0,    0.0,   -0.0,    0.0,   -0.0,   -0.0,   -0.1,   -0.2,  999.0,  999.0,  999.0,   -0.1,   -0.1,   -0.2,  999.0,  999.0,  999.0,  999.0,  999.0,  999.0
2013/04/02 00:10,  999.0,    0.0,    0.0,    0.0,    0.0,   -0.0,   -0.0,    0.0,   -0.0,   -0.0,   -0.0,   -0.0,   -0.0,   -0.0,   -0.1,   -0.1,   -0.0,    0.0,    0.0,    0.0,   -0.0,   -0.0,   -0.0,   -0.0,   -0.0,   -0.0,   -0.0,   -0.0,   -0.0,   -0.0,   -0.1,   -0.0,   -0.0,   -0.0,    0.0,    0.0,  999.0,  999.0,    0.0,   -0.1,    0.0,    0.0,   -0.0,   -0.1,    0.0,   -0.1,   -0.0,   -0.0,   -0.0,   -0.0,    0.0,    0.0,   -0.0,   -0.0,    0.0,   -0.0,   -0.0,   -0.0,   -0.0,    0.0,    0.0,    0.0,   -0.0,   -0.0,   -0.1,   -0.1,   -0.4,  999.0,  999.0,  999.0,  999.0,  999.0,  999.0,  999.0,  999.0,  999.0,  999.0,  999.0,  999.0,  999.0
2013/04/02 00:20,    0.0,   -0.0,    0.0,    0.0,    0.1,    0.1,    0.1,    0.1,    0.0,    0.1,    0.2,    0.0,    0.0,    0.0,   -0.0,   -0.0,    0.0,    0.0,    0.0,    0.0,    0.0,   -0.0,    0.0,   -0.0,   -0.0,    0.0,    0.0,   -0.0,   -0.0,    0.1,    0.0,  999.0,    0.0,  999.0,  999.0,   -0.0,  999.0,  999.0,   -0.0,   -0.1,  999.0,   -0.0,  999.0,  999.0,   -0.0,    0.0,  999.0,   -0.0,   -0.0,    0.0,  999.0,    0.0,   -0.0,   -0.0,    0.0,    0.0,    0.0,    0.0,   -0.0,    0.0,    0.0,   -0.0,   -0.0,   -0.0,   -0.1,   -0.1,   -0.6,  999.0,  999.0,  999.0,  999.0,  999.0,  999.0,  999.0,  999.0,  999.0,  999.0,  999.0,  999.0,  999.0
2013/04/02 00:30,   -0.0,    0.1,    0.1,    0.1,    0.1,    0.1,    0.3,    0.2,    0.1,    0.2,    0.3,    0.1,    0.1,    0.1,    0.2,    0.1,    0.0,    0.0,    0.0,    0.0,    0.0,    0.0,    0.0,    0.0,   -0.0,    0.0,    0.0,    0.1,    0.0,  999.0,    0.0,    0.0,   -0.0,    0.0,  999.0,  999.0,  999.0,  999.0,  999.0,   -0.1,  999.0,    0.0,  999.0,  999.0,   -0.0,    0.0,   -0.0,    0.0,   -0.0,   -0.0,    0.0,   -0.0,    0.0,    0.0,   -0.0,    0.0,    0.0,    0.0,    0.0,    0.0,   -0.1,   -0.1,   -0.0,   -0.1,   -0.2,   -0.4,   -1.1,   -1.3,   -1.2,   -1.1,   -1.3,   -1.2,   -1.0,   -0.8,   -0.8,  999.0,  999.0,  999.0,  999.0,  999.0
2013/04/02 00:40,   -0.0,    0.1,    0.0,    0.0,    0.1,    0.0,    0.1,    0.3,    0.2,    0.2,    0.2,    0.2,    0.0,    0.1,    0.1,   -0.0,    0.0,    0.0,    0.1,    0.0,   -0.0,   -0.0,   -0.0,   -0.0,    0.0,   -0.0,   -0.1,    0.0,  999.0,  999.0,   -0.0,   -0.0,    0.0,  999.0,  999.0,    0.0,  999.0,  999.0,  999.0,   -0.2,   -0.0,   -0.0,  999.0,  999.0,   -0.0,    0.1,   -0.0,   -0.0,   -0.1,   -0.0,   -0.0,   -0.0,    0.0,   -0.1,    0.0,   -0.0,   -0.0,   -0.0,   -0.0,   -0.0,   -0.0,   -0.1,    0.0,   -0.1,   -0.0,   -0.3,   -0.8,   -1.2,   -0.9,   -1.0,   -0.9,   -0.9,   -1.0,   -0.6,  999.0,  999.0,  999.0,  999.0,  999.0,  999.0
2013/04/02 00:50,    0.0,    0.1,    0.1,    0.0,    0.0,    0.0,    0.4,    0.4,    0.3,    0.2,    0.1,    0.2,    0.1,    0.1,    0.1,    0.0,    0.0,    0.0,    0.0,    0.0,    0.0,   -0.0,    0.0,    0.0,    0.0,    0.0,    0.1,  999.0,  999.0,  999.0,  999.0,   -0.1,  999.0,  999.0,  999.0,  999.0,  999.0,  999.0,  999.0,   -0.2,  999.0,    0.0,  999.0,    0.0,   -0.0,   -0.0,  999.0,   -0.0,   -0.0,    0.0,   -0.0,    0.1,   -0.0,   -0.0,    0.0,   -0.0,   -0.0,   -0.0,   -0.0,    0.0,   -0.0,   -0.0,   -0.2,   -0.2,   -0.2,   -0.3,   -0.7,   -1.2,   -0.9,  999.0,  999.0,  999.0,   -0.4,  999.0,  999.0,  999.0,  999.0,  999.0,  999.0,  999.0
2013/04/02 01:00,   -0.0,    0.1,    0.1,   -0.0,    0.1,    0.2,    0.4,    0.2,    0.2,    0.2,    0.2,    0.1,    0.1,    0.1,    0.1,    0.0,    0.1,    0.0,    0.0,   -0.0,    0.0,    0.0,    0.0,   -0.0,    0.0,    0.0,    0.0,    0.0,  999.0,  999.0,   -0.0,  999.0,  999.0,  999.0,  999.0,  999.0,  999.0,  999.0,  999.0,   -0.3,  999.0,  999.0,  999.0,   -0.0,   -0.0,   -0.0,   -0.0,   -0.1,    0.0,    0.1,    0.1,    0.0,    0.0,   -0.0,    0.0,    0.0,   -0.0,    0.0,    0.0,    0.0,   -0.1,   -0.0,   -0.0,   -0.0,   -0.0,   -0.0,   -0.0,  999.0,  999.0,  999.0,  999.0,  999.0,  999.0,   -0.0,  999.0,  999.0,  999.0,  999.0,  999.0,  999.0
2013/04/02 01:10,  999.0,    0.1,    0.1,   -0.0,   -0.1,    0.2,  999.0,    0.5,    0.4,    0.4,    0.3,    0.2,    0.1,    0.1,    0.2,    0.0,   -0.0,   -0.0,   -0.0,   -0.0,    0.0,   -0.0,   -0.0,    0.0,   -0.1,   -0.1,    0.0,    0.0,  999.0,  999.0,    0.0,    0.0,  999.0,  999.0,  999.0,  999.0,  999.0,  999.0,    0.1,   -0.3,  999.0,    0.0,  999.0,  999.0,    0.0,   -0.1,   -0.0,   -0.0,   -0.0,   -0.0,   -0.0,    0.0,   -0.0,   -0.0,   -0.0,   -0.0,   -0.0,    0.0,    0.0,    0.0,   -0.0,    0.0,   -0.0,    0.0,    0.0,   -0.0,   -0.1,   -0.1,   -0.2,  999.0,   -0.1,   -0.1,   -0.0,  999.0,    0.1,  999.0,  999.0,  999.0,  999.0,  999.0
2013/04/02 01:20,   -0.0,    0.0,    0.0,   -0.1,    0.1,    0.1,    0.1,    0.2,    0.2,    0.1,    0.2,    0.1,   -0.0,   -0.1,   -0.1,   -0.2,   -0.0,   -0.1,   -0.1,    0.0,    0.0,    0.0,   -0.0,   -0.0,   -0.0,    0.0,   -0.0,  999.0,  999.0,    0.0,  999.0,  999.0,  999.0,  999.0,  999.0,  999.0,  999.0,  999.0,  999.0,   -0.3,  999.0,  999.0,   -0.0,   -0.0,    0.0,    0.0,   -0.0,   -0.0,   -0.0,   -0.0,   -0.1,   -0.0,    0.0,    0.0,   -0.0,   -0.0,    0.0,    0.0,    0.0,    0.0,   -0.1,   -0.0,    0.0,   -0.0,    0.0,   -0.0,   -0.1,   -0.4,  999.0,  999.0,    0.0,    0.0,   -0.1,  999.0,  999.0,  999.0,  999.0,  999.0,  999.0,  999.0
2013/04/02 01:30,    0.0,    0.1,    0.1,    0.0,    0.1,    0.2,    0.5,    0.5,    0.2,    0.2,    0.2,    0.2,    0.1,    0.0,   -0.1,   -0.0,    0.1,   -0.0,   -0.0,   -0.0,   -0.0,   -0.0,    0.0,    0.0,   -0.0,    0.0,  999.0,  999.0,  999.0,   -0.1,    0.0,  999.0,  999.0,  999.0,  999.0,  999.0,  999.0,  999.0,  999.0,   -0.2,  999.0,  999.0,  999.0,   -0.0,   -0.0,   -0.0,   -0.0,    0.0,   -0.0,    0.0,    0.0,    0.0,   -0.0,    0.0,   -0.0,    0.0,   -0.0,    0.0,    0.0,    0.0,    0.0,    0.0,   -0.0,   -0.0,   -0.0,   -0.1,   -0.4,   -0.8,   -0.8,  999.0,  999.0,  999.0,   -0.0,  999.0,  999.0,  999.0,  999.0,  999.0,  999.0,  999.0
2013/04/02 01:40,   -0.0,    0.0,   -0.0,    0.0,   -0.0,    0.1,    0.3,    0.2,    0.2,    0.2,    0.2,    0.2,    0.2,    0.2,    0.2,    0.1,    0.2,    0.1,    0.1,    0.0,   -0.0,   -0.0,   -0.0,   -0.0,   -0.0,   -0.1,    0.0,   -0.1,  999.0,    0.1,   -0.0,  999.0,  999.0,   -0.0,  999.0,  999.0,  999.0,  999.0,    0.3,   -0.2,   -0.1,  999.0,  999.0,    0.0,    0.0,   -0.0,  999.0,    0.0,   -0.0,   -0.0,   -0.0,   -0.0,    0.0,   -0.0,    0.0,    0.0,    0.0,    0.0,    0.0,   -0.0,   -0.0,   -0.0,   -0.0,   -0.1,   -0.2,   -0.1,   -0.2,   -0.6,   -0.8,  999.0,  999.0,  999.0,    0.0,  999.0,  999.0,  999.0,  999.0,  999.0,  999.0,  999.0
2013/04/02 01:50,    0.1,    0.1,    0.0,  999.0,  999.0,   -0.0,    0.3,    0.3,    0.3,    0.2,    0.2,    0.1,    0.3,    0.2,    0.1,    0.2,    0.1,    0.3,    0.1,    0.0,   -0.0,   -0.1,   -0.0,   -0.0,   -0.1,  999.0,  999.0,  999.0,  999.0,  999.0,  999.0,  999.0,  999.0,  999.0,  999.0,  999.0,  999.0,  999.0,  999.0,   -0.2,  999.0,  999.0,  999.0,   -0.0,   -0.0,    0.1,   -0.0,    0.0,    0.0,    0.0,   -0.0,   -0.0,   -0.0,    0.0,    0.0,   -0.0,    0.0,   -0.0,   -0.0,   -0.0,   -0.3,   -0.4,   -0.4,   -0.6,   -0.1,   -0.2,   -0.6,   -1.0,   -1.1,   -0.7,  999.0,  999.0,  999.0,  999.0,  999.0,  999.0,  999.0,  999.0,  999.0,  999.0
2013/04/02 02:00,   -0.0,    0.2,   -0.0,   -0.0,    0.1,   -0.0,    0.3,    0.4,    0.4,    0.4,    0.2,    0.3,    0.2,    0.1,    0.1,    0.0,   -0.0,    0.1,    0.0,   -0.1,   -0.2,   -0.0,   -0.1,    0.0,   -0.0,   -0.0,  999.0,   -0.0,  999.0,  999.0,    0.0,  999.0,  999.0,  999.0,  999.0,  999.0,  999.0,  999.0,  999.0,   -0.2,  999.0,  999.0,  999.0,    0.0,   -0.0,    0.0,    0.0,    0.1,    0.0,    0.0,    0.0,    0.0,    0.1,    0.0,   -0.0,    0.0,    0.0,   -0.0,   -0.0,   -0.0,   -0.0,   -0.1,   -0.2,   -0.2,   -0.1,   -0.0,   -0.1,   -0.4,   -0.0,  999.0,  999.0,  999.0,   -0.1,   -0.1,  999.0,  999.0,  999.0,  999.0,  999.0,  999.0
2013/04/02 02:10,    0.0,    0.1,   -0.1,   -0.0,    0.0,    0.3,    0.4,    0.3,    0.3,    0.2,    0.2,    0.1,    0.1,   -0.1,   -0.1,   -0.3,   -0.2,   -0.2,   -0.1,   -0.3,   -0.4,   -0.0,   -0.0,    0.0,   -0.0,  999.0,  999.0,  999.0,  999.0,   -0.0,    0.0,  999.0,  999.0,  999.0,  999.0,  999.0,  999.0,  999.0,  999.0,   -0.2,  999.0,  999.0,  999.0,  999.0,    0.0,  999.0,    0.0,   -0.0,   -0.0,    0.0,   -0.0,    0.0,   -0.0,    0.0,    0.0,   -0.0,    0.0,   -0.1,   -0.0,   -0.1,   -0.2,   -0.1,   -0.1,   -0.2,   -0.1,   -0.1,   -0.4,   -0.6,  999.0,  999.0,  999.0,  999.0,  999.0,   -0.0,  999.0,  999.0,  999.0,  999.0,  999.0,  999.0
2013/04/02 02:20,    0.0,   -0.0,    0.0,   -0.0,    0.0,    0.2,    0.2,    0.3,    0.3,    0.3,    0.2,    0.2,    0.1,   -0.1,    0.0,    0.0,   -0.1,   -0.2,   -0.2,   -0.2,   -0.2,    0.0,   -0.0,    0.0,   -0.0,    0.0,  999.0,   -0.0,  999.0,  999.0,   -0.0,  999.0,  999.0,  999.0,  999.0,  999.0,  999.0,  999.0,  999.0,   -0.2,  999.0,  999.0,  999.0,  999.0,  999.0,  999.0,  999.0,  999.0,   -0.0,   -0.0,   -0.0,    0.1,   -0.0,   -0.0,    0.0,    0.0,    0.0,   -0.1,   -0.1,   -0.2,   -0.2,   -0.4,   -0.2,   -0.6,   -0.3,   -0.2,   -0.5,  999.0,  999.0,  999.0,  999.0,  999.0,  999.0,   -0.0,  999.0,  999.0,  999.0,  999.0,  999.0,  999.0
2013/04/02 02:30,    0.0,    0.1,    0.2,   -0.0,  999.0,    0.1,    0.3,    0.3,    0.3,    0.3,    0.3,    0.2,    0.2,    0.1,   -0.0,   -0.2,   -0.3,   -0.2,   -0.2,   -0.2,   -0.2,   -0.1,   -0.0,    0.0,   -0.0,  999.0,  999.0,  999.0,  999.0,  999.0,  999.0,  999.0,  999.0,  999.0,  999.0,  999.0,  999.0,  999.0,  999.0,   -0.3,  999.0,  999.0,  999.0,  999.0,  999.0,  999.0,  999.0,  999.0,  999.0,  999.0,   -0.0,   -0.1,    0.0,   -0.0,  999.0,   -0.0,    0.0,    0.0,   -0.0,   -0.0,  999.0,   -0.2,   -0.1,   -0.6,   -0.2,   -0.2,  999.0,  999.0,  999.0,  999.0,  999.0,  999.0,  999.0,  999.0,   -0.1,  999.0,  999.0,  999.0,  999.0,  999.0
2013/04/02 02:40,   -0.0,    0.0,   -0.1,   -0.0,  999.0,    0.0,    0.0,    0.1,    0.2,    0.0,   -0.0,   -0.0,   -0.1,   -0.0,   -0.1,   -0.1,   -0.2,   -0.2,   -0.1,   -0.0,   -0.0,   -0.0,   -0.0,    0.0,  999.0,  999.0,  999.0,  999.0,  999.0,  999.0,  999.0,    0.1,  999.0,  999.0,  999.0,  999.0,  999.0,  999.0,  999.0,   -0.3,  999.0,  999.0,  999.0,  999.0,  999.0,  999.0,  999.0,  999.0,  999.0,  999.0,  999.0,    0.0,  999.0,    0.0,  999.0,   -0.0,   -0.0,   -0.0,   -0.1,   -0.2,  999.0,   -0.2,   -0.1,   -0.2,   -0.1,   -0.1,  999.0,  999.0,   -0.5,  999.0,  999.0,  999.0,  999.0,    0.0,  999.0,  999.0,  999.0,  999.0,  999.0,  999.0
2013/04/02 02:50,    0.0,    0.1,   -0.0,    0.1,    0.4,    0.4,    0.3,    0.3,    0.3,    0.2,    0.2,    0.2,    0.3,    0.1,    0.1,    0.1,   -0.0,   -0.1,   -0.1,   -0.0,   -0.0,  999.0,  999.0,  999.0,  999.0,  999.0,  999.0,  999.0,  999.0,  999.0,  999.0,   -0.0,  999.0,  999.0,  999.0,  999.0,  999.0,  999.0,  999.0,   -0.3,  999.0,  999.0,  999.0,  999.0,  999.0,  999.0,  999.0,  999.0,  999.0,   -0.0,  999.0,  999.0,    0.0,   -0.1,   -0.1,    0.0,   -0.0,   -0.1,    0.0,    0.0,  999.0,   -0.2,   -0.2,   -0.3,   -0.3,   -0.1,  999.0,  999.0,  999.0,  999.0,  999.0,  999.0,  999.0,  999.0,  999.0,  999.0,  999.0,  999.0,  999.0,  999.0
2013/04/02 03:00,   -0.0,    0.1,   -0.0,    0.2,    0.2,    0.2,    0.2,    0.4,    0.3,    0.2,    0.2,    0.1,    0.2,    0.1,    0.0,    0.0,   -0.1,   -0.1,   -0.1,   -0.0,    0.2,  999.0,  999.0,  999.0,  999.0,  999.0,  999.0,  999.0,  999.0,  999.0,  999.0,  999.0,  999.0,  999.0,  999.0,  999.0,  999.0,  999.0,  999.0,  999.0,  999.0,  999.0,  999.0,  999.0,  999.0,  999.0,   -0.0,  999.0,    0.0,  999.0,    0.0,   -0.0,   -0.2,   -0.4,   -0.9,   -0.9,   -0.7,   -1.2,   -1.1,   -1.1,   -1.2,   -0.9,   -0.9,   -0.8,   -0.5,   -0.8,   -1.0,   -1.0,   -1.2,   -1.2,   -1.1,   -1.1,   -0.9,   -0.9,  999.0,  999.0,  999.0,  999.0,  999.0,  999.0
2013/04/02 03:10,  999.0,    0.1,    0.0,    0.3,  999.0,    0.1,    0.1,    0.3,    0.2,    0.2,    0.2,    0.1,    0.1,    0.1,    0.0,   -0.0,    0.1,   -0.0,   -0.0,    0.0,    0.0,  999.0,  999.0,    0.0,  999.0,  999.0,  999.0,  999.0,   -0.0,  999.0,  999.0,  999.0,  999.0,  999.0,  999.0,  999.0,  999.0,  999.0,  999.0,  999.0,  999.0,  999.0,  999.0,    0.0,    0.0,   -0.0,    0.0,    0.0,   -0.1,   -0.0,    0.0,  999.0,   -0.1,   -0.3,   -0.9,   -0.6,   -0.4,   -0.9,   -0.8,   -0.9,   -1.0,   -0.9,   -0.7,   -0.9,   -0.6,   -0.9,   -1.0,   -1.0,   -1.0,   -1.2,   -1.3,   -1.2,   -1.1,   -0.7,  999.0,  999.0,  999.0,  999.0,  999.0,  999.0
2013/04/02 03:20,  999.0,    0.1,   -0.0,   -0.1,   -0.0,    0.1,    0.0,    0.1,    0.0,    0.2,    0.1,    0.2,    0.1,    0.1,    0.1,    0.1,    0.0,   -0.0,   -0.1,    0.0,   -0.0,   -0.1,   -0.0,   -0.1,    0.1,  999.0,  999.0,  999.0,  999.0,  999.0,  999.0,  999.0,  999.0,  999.0,  999.0,  999.0,  999.0,  999.0,  999.0,   -0.3,  999.0,  999.0,  999.0,   -0.0,   -0.0,    0.0,    0.0,   -0.0,   -0.0,   -0.0,    0.0,   -0.2,   -0.0,    0.0,   -0.1,   -0.1,   -0.2,   -0.4,   -0.5,   -0.7,   -0.8,   -0.6,   -0.4,   -0.8,   -0.2,   -0.5,   -0.8,   -0.7,  999.0,   -1.0,   -0.9,   -1.3,   -0.8,  999.0,  999.0,  999.0,  999.0,  999.0,  999.0,  999.0
2013/04/02 03:30,   -0.0,    0.1,   -0.0,   -0.0,    0.0,    0.2,  999.0,  999.0,  999.0,    0.3,    0.2,    0.2,    0.2,    0.1,    0.2,   -0.0,    0.2,    0.2,   -0.0,   -0.0,   -0.1,   -0.1,   -0.1,   -0.2,  999.0,  999.0,  999.0,  999.0,  999.0,  999.0,  999.0,  999.0,  999.0,  999.0,  999.0,  999.0,  999.0,  999.0,  999.0,   -0.3,  999.0,  999.0,  999.0,    0.1,    0.0,   -0.0,  999.0,    0.0,    0.0,   -0.1,   -0.1,   -0.0,   -0.0,    0.0,   -0.0,   -0.0,   -0.1,   -0.2,   -0.3,   -0.7,   -1.0,   -0.8,   -0.6,   -0.8,   -0.4,   -0.4,   -0.8,   -0.9,   -0.7,   -0.8,  999.0,  999.0,  999.0,  999.0,  999.0,  999.0,  999.0,  999.0,  999.0,  999.0
2013/04/02 03:40,    0.0,    0.1,    0.0,  999.0,  999.0,    0.2,  999.0,  999.0,    0.1,    0.3,    0.3,    0.2,    0.2,    0.2,    0.3,    0.1,    0.1,    0.0,    0.1,    0.2,    0.2,    0.1,    0.1,  999.0,    0.0,  999.0,  999.0,   -0.0,    0.0,    0.0,  999.0,  999.0,  999.0,  999.0,  999.0,  999.0,  999.0,  999.0,  999.0,   -0.2,  999.0,  999.0,  999.0,   -0.0,  999.0,  999.0,   -0.0,    0.0,    0.0,    0.0,    0.0,    0.0,    0.1,    0.0,   -0.0,   -0.0,    0.1,    0.0,   -0.1,   -0.1,   -0.5,   -0.4,   -0.3,   -0.5,   -0.1,   -0.2,   -0.6,   -0.7,   -0.6,  999.0,  999.0,   -0.3,  999.0,   -0.0,  999.0,  999.0,  999.0,  999.0,  999.0,  999.0
2013/04/02 03:50,    0.0,    0.2,   -0.1,   -0.0,    0.3,    0.2,   -0.0,    0.3,    0.3,    0.4,    0.2,    0.1,    0.1,    0.2,    0.2,    0.2,    0.1,    0.1,    0.0,    0.1,    0.1,    0.1,    0.0,    0.0,   -0.0,    0.0,    0.0,   -0.1,   -0.0,   -0.1,   -0.1,  999.0,  999.0,  999.0,  999.0,  999.0,  999.0,  999.0,  999.0,   -0.2,    0.1,  999.0,  999.0,   -0.0,    0.1,    0.1,   -0.0,   -0.0,   -0.0,   -0.1,    0.0,    0.0,    0.0,    0.0,    0.0,    0.0,    0.0,   -0.0,    0.0,    0.0,   -0.2,   -0.2,   -0.2,   -0.3,   -0.1,   -0.1,   -0.2,   -0.1,  999.0,   -0.2,  999.0,    0.0,    0.1,   -0.0,  999.0,  999.0,  999.0,  999.0,  999.0,  999.0
2013/04/02 04:00,  999.0,   -0.1,   -0.1,    0.1,    0.3,    0.1,    0.1,    0.6,    0.2,    0.2,    0.2,    0.1,    0.1,    0.1,    0.1,    0.1,    0.1,    0.0,    0.0,    0.0,    0.1,    0.1,    0.1,    0.1,   -0.1,    0.0,    0.1,    0.1,    0.2,    0.1,    0.1,   -0.0,    0.0,    0.0,  999.0,  999.0,    0.0,  999.0,  999.0,   -0.1,   -0.0,    0.0,   -0.0,    0.0,   -0.0,    0.0,   -0.1,    0.0,   -0.0,   -0.0,   -0.0,   -0.0,    0.0,    0.0,    0.0,    0.0,    0.0,    0.0,    0.0,    0.1,   -0.0,    0.0,   -0.1,   -0.1,   -0.1,   -0.1,   -0.1,   -0.1,  999.0,    0.1,  999.0,    0.0,   -0.0,   -0.0,  999.0,  999.0,  999.0,  999.0,  999.0,  999.0
2013/04/02 04:10,  999.0,   -0.0,   -0.0,    0.0,    0.3,    0.2,    0.3,    0.2,    0.4,    0.2,    0.2,    0.1,    0.2,    0.2,    0.2,    0.2,    0.2,    0.1,    0.1,    0.0,    0.1,    0.1,   -0.0,   -0.1,    0.0,    0.1,    0.2,    0.2,    0.2,    0.3,    0.1,    0.0,    0.1,    0.1,   -0.1,   -0.0,  999.0,  999.0,    0.0,   -0.1,   -0.0,    0.0,  999.0,   -0.0,    0.0,    0.1,    0.0,   -0.0,    0.0,    0.0,    0.0,    0.0,    0.0,   -0.0,    0.0,    0.0,    0.0,    0.0,    0.0,    0.0,    0.0,    0.0,   -0.0,   -0.1,   -0.0,   -0.1,   -0.0,   -0.1,   -0.1,  999.0,    0.0,   -0.0,    0.1,    0.0,  999.0,  999.0,  999.0,  999.0,  999.0,  999.0
2013/04/02 04:20,   -0.0,    0.2,   -0.1,    0.1,    0.1,    0.1,   -0.1,   -0.1,    0.0,    0.1,   -0.1,   -0.0,    0.0,   -0.0,    0.0,    0.1,    0.1,    0.1,    0.0,    0.1,    0.0,    0.0,   -0.0,   -0.0,   -0.0,    0.0,   -0.0,    0.0,    0.1,    0.1,   -0.0,   -0.0,   -0.0,    0.0,   -0.0,   -0.0,  999.0,    0.0,    0.0,   -0.1,   -0.0,    0.0,  999.0,   -0.0,    0.0,    0.0,    0.0,    0.0,    0.0,    0.1,    0.0,   -0.0,    0.0,    0.0,   -0.0,    0.0,    0.0,    0.0,    0.0,    0.0,   -0.0,   -0.1,   -0.0,   -0.1,   -0.1,   -0.1,   -0.0,   -0.0,   -0.1,   -0.0,   -0.0,   -0.0,    0.0,    0.0,   -0.0,  999.0,  999.0,  999.0,  999.0,  999.0
2013/04/02 04:30,   -0.0,   -0.0,   -0.1,  999.0,  999.0,  999.0,   -0.1,   -0.0,   -0.0,   -0.1,   -0.1,   -0.2,   -0.1,    0.0,    0.0,    0.1,    0.1,    0.0,    0.0,    0.0,    0.0,   -0.0,   -0.0,    0.0,    0.0,   -0.0,    0.0,   -0.1,   -0.1,    0.1,    0.1,    0.0,    0.0,  999.0,   -0.0,   -0.0,   -0.1,   -0.0,  999.0,   -0.0,    0.1,  999.0,   -0.0,    0.0,    0.0,   -0.0,   -0.0,   -0.0,    0.0,   -0.0,   -0.0,   -0.0,    0.0,   -0.0,    0.0,   -0.0,   -0.0,    0.0,    0.0,    0.0,   -0.0,   -0.1,   -0.1,   -0.1,   -0.1,   -0.0,   -0.1,   -0.1,    0.0,   -0.0,   -0.0,    0.0,   -0.0,    0.0,    0.1,  999.0,  999.0,  999.0,  999.0,  999.0
2013/04/02 04:40,    0.0,    0.1,    0.0,   -0.0,  999.0,  999.0,   -0.0,   -0.0,   -0.1,   -0.1,   -0.0,   -0.1,   -0.1,   -0.1,   -0.1,    0.1,    0.1,    0.0,   -0.0,   -0.0,   -0.0,   -0.1,   -0.0,    0.0,   -0.0,    0.0,    0.1,    0.0,    0.1,    0.0,    0.0,    0.1,   -0.0,    0.0,   -0.0,   -0.0,    0.0,    0.0,   -0.0,   -0.1,   -0.0,    0.0,   -0.0,    0.0,    0.0,    0.0,    0.0,   -0.0,   -0.0,   -0.0,   -0.0,   -0.0,   -0.0,    0.0,   -0.0,    0.0,    0.0,    0.0,   -0.0,   -0.0,    0.0,   -0.1,   -0.1,   -0.1,   -0.1,   -0.1,   -0.1,    0.0,    0.0,   -0.0,    0.0,    0.0,   -0.0,  999.0,   -0.0,  999.0,  999.0,  999.0,  999.0,  999.0
2013/04/02 04:50,   -0.0,    0.1,   -0.0,    0.1,    0.1,    0.1,   -0.2,   -0.0,   -0.1,   -0.1,   -0.2,   -0.2,   -0.4,   -0.2,   -0.2,   -0.2,   -0.1,   -0.0,   -0.0,   -0.1,   -0.1,   -0.1,    0.0,   -0.1,   -0.1,   -0.1,  999.0,   -0.1,   -0.1,   -0.0,    0.0,   -0.0,    0.0,  999.0,    0.0,    0.0,    0.1,   -0.0,    0.0,   -0.1,   -0.0,   -0.0,    0.0,   -0.0,   -0.0,   -0.0,    0.0,    0.0,    0.0,    0.0,   -0.0,   -0.0,   -0.0,    0.0,    0.0,    0.0,   -0.0,    0.0,   -0.0,   -0.0,   -0.1,   -0.2,   -0.1,   -0.1,   -0.1,   -0.0,   -0.0,    0.0,    0.1,   -0.0,    0.0,    0.0,    0.0,    0.0,   -0.0,   -0.0,  999.0,  999.0,  999.0,  999.0
2013/04/02 05:00,    0.0,    0.0,   -0.0,    0.0,   -0.0,    0.1,   -0.1,   -0.1,   -0.1,   -0.3,   -0.3,   -0.4,   -0.5,   -0.4,   -0.3,   -0.4,   -0.5,   -0.3,   -0.2,   -0.1,   -0.2,   -0.1,   -0.3,   -0.3,   -0.2,   -0.0,   -0.0,   -0.2,  999.0,  999.0,   -0.1,   -0.1,   -0.0,    0.0,  999.0,    0.0,    0.0,   -0.0,   -0.0,   -0.0,   -0.0,   -0.0,    0.0,   -0.0,   -0.0,   -0.0,   -0.0,   -0.0,    0.0,    0.0,    0.0,    0.0,    0.0,   -0.0,    0.0,    0.0,    0.0,   -0.0,    0.0,    0.0,   -0.1,   -0.1,   -0.1,   -0.1,   -0.0,   -0.0,   -0.1,   -0.0,    0.0,   -0.0,    0.0,    0.0,   -0.0,   -0.0,    0.0,  999.0,  999.0,  999.0,  999.0,  999.0
2013/04/02 05:10,   -0.0,    0.0,   -0.0,    0.0,   -0.0,   -0.0,   -0.0,   -0.1,   -0.0,   -0.1,   -0.2,   -0.2,   -0.2,   -0.2,   -0.2,   -0.2,   -0.2,   -0.2,   -0.1,   -0.1,   -0.1,   -0.0,   -0.1,   -0.1,   -0.1,   -0.0,    0.0,    0.1,    0.0,    0.0,    0.1,    0.1,    0.2,    0.2,    0.2,    0.3,  999.0,  999.0,  999.0,   -0.1,    0.0,   -0.0,    0.0,   -0.0,    0.0,   -0.1,   -0.0,   -0.0,    0.0,    0.1,   -0.0,   -0.0,    0.0,    0.0,    0.0,    0.0,   -0.0,    0.0,   -0.0,   -0.0,   -0.3,   -0.1,   -0.1,   -0.1,   -0.1,   -0.0,    0.0,    0.0,   -0.0,    0.1,    0.0,    0.0,    0.1,   -0.0,    0.1,  999.0,  999.0,  999.0,  999.0,  999.0
2013/04/02 05:20,   -0.0,    0.0,   -0.1,    0.0,    0.0,   -0.0,   -0.1,   -0.1,   -0.2,   -0.3,   -0.3,   -0.3,   -0.4,   -0.3,   -0.2,   -0.3,   -0.3,   -0.3,   -0.1,   -0.1,   -0.1,    0.1,    0.1,    0.0,    0.0,    0.1,    0.3,    0.2,    0.1,    0.2,    0.2,    0.1,    0.0,    0.2,    0.2,    0.1,  999.0,  999.0,    0.0,   -0.1,    0.0,    0.0,    0.0,    0.0,    0.1,    0.0,   -0.0,    0.0,   -0.0,   -0.0,    0.0,    0.1,   -0.0,    0.0,    0.0,    0.0,    0.0,    0.0,    0.0,    0.0,    0.0,   -0.0,   -0.1,   -0.1,    0.0,   -0.0,    0.0,   -0.0,   -0.0,   -0.1,    0.0,   -0.0,    0.1,   -0.0,  999.0,  999.0,  999.0,  999.0,  999.0,  999.0
2013/04/02 05:30,   -0.0,    0.1,    0.0,   -0.0,   -0.0,   -0.0,   -0.0,   -0.1,   -0.1,   -0.3,   -0.2,   -0.2,   -0.3,   -0.3,   -0.2,   -0.1,   -0.3,   -0.3,   -0.2,   -0.0,   -0.1,   -0.0,   -0.0,    0.0,    0.1,    0.1,    0.0,    0.1,    0.2,    0.2,    0.2,    0.3,    0.4,    0.4,    0.3,  999.0,   -0.0,    0.0,   -0.0,   -0.1,   -0.0,    0.0,    0.0,    0.0,    0.0,   -0.0,    0.0,   -0.0,    0.0,   -0.0,   -0.0,    0.0,   -0.0,    0.0,    0.0,   -0.0,    0.0,   -0.0,    0.0,    0.0,    0.0,    0.0,   -0.0,   -0.0,   -0.0,   -0.0,   -0.0,   -0.0,   -0.0,   -0.0,    0.0,    0.0,   -0.1,   -0.0,  999.0,  999.0,  999.0,  999.0,  999.0,  999.0
2013/04/02 05:40,   -0.0,    0.2,    0.1,    0.0,    0.0,   -0.0,   -0.0,   -0.0,   -0.1,   -0.2,   -0.1,   -0.1,   -0.1,   -0.2,   -0.1,    0.0,   -0.0,   -0.1,    0.0,    0.1,    0.2,    0.2,    0.2,    0.1,    0.1,    0.1,    0.2,    0.2,    0.1,    0.1,   -0.1,    0.0,    0.1,    0.2,    0.1,    0.1,    0.0,    0.1,    0.0,   -0.1,    0.0,    0.0,   -0.0,   -0.0,   -0.0,    0.0,   -0.0,   -0.0,    0.0,    0.0,    0.0,    0.0,    0.0,   -0.0,    0.0,    0.0,    0.0,   -0.0,    0.0,    0.0,    0.0,   -0.0,   -0.0,   -0.0,   -0.0,   -0.0,    0.0,    0.0,    0.0,   -0.0,   -0.0,   -0.0,  999.0,    0.0,  999.0,  999.0,  999.0,  999.0,  999.0,  999.0
2013/04/02 05:50,   -0.0,    0.0,    0.1,   -0.0,   -0.0,   -0.1,   -0.1,   -0.0,   -0.0,   -0.0,    0.0,    0.0,   -0.0,    0.1,    0.1,    0.0,    0.1,   -0.0,    0.1,    0.1,    0.3,    0.3,    0.3,    0.4,    0.1,    0.1,    0.2,    0.1,    0.1,    0.1,   -0.0,    0.0,   -0.1,   -0.1,   -0.0,  999.0,    0.0,   -0.0,   -0.0,   -0.1,   -0.0,   -0.0,   -0.0,   -0.0,    0.0,   -0.0,   -0.0,    0.0,   -0.0,    0.0,    0.0,    0.0,    0.0,    0.0,   -0.0,    0.0,   -0.0,   -0.0,   -0.0,   -0.0,    0.0,    0.0,    0.0,   -0.0,   -0.0,   -0.0,    0.0,    0.1,    0.0,    0.0,    0.0,    0.0,    0.0,  999.0,  999.0,  999.0,  999.0,  999.0,  999.0,  999.0
2013/04/02 06:00,  999.0,    0.0,    0.0,   -0.0,   -0.0,   -0.0,    0.0,   -0.0,   -0.1,   -0.0,   -0.1,   -0.0,   -0.0,   -0.0,    0.1,    0.1,    0.1,    0.1,    0.2,    0.1,    0.0,    0.2,    0.1,   -0.1,   -0.1,    0.0,   -0.1,    0.0,   -0.1,   -0.2,   -0.3,    0.0,   -0.1,   -0.1,   -0.0,   -0.1,   -0.3,    0.0,    0.1,   -0.2,  999.0,  999.0,    0.0,    0.0,   -0.0,    0.0,    0.0,   -0.0,    0.0,    0.0,    0.0,    0.0,   -0.0,   -0.0,   -0.0,    0.0,   -0.0,    0.0,   -0.0,   -0.0,    0.0,   -0.0,    0.0,    0.0,    0.0,   -0.0,    0.0,    0.0,   -0.0,   -0.0,   -0.0,   -0.0,    0.0,  999.0,  999.0,  999.0,  999.0,  999.0,  999.0,  999.0
2013/04/02 06:10,   -0.0,   -0.0,    0.0,   -0.1,   -0.2,   -0.0,    0.0,   -0.1,   -0.1,   -0.0,   -0.1,   -0.0,   -0.1,   -0.1,   -0.0,    0.1,    0.1,    0.1,    0.1,    0.1,    0.1,   -0.2,   -0.4,   -0.5,   -0.6,   -0.3,   -0.5,   -0.5,   -0.5,   -0.5,   -0.4,   -0.1,   -0.2,   -0.2,   -0.1,   -0.2,    0.0,   -0.0,  999.0,   -0.0,    0.0,   -0.1,    0.0,   -0.0,    0.0,    0.0,    0.0,    0.0,    0.0,    0.0,   -0.0,   -0.0,    0.0,    0.0,   -0.0,   -0.0,   -0.0,   -0.0,   -0.0,    0.0,    0.1,   -0.0,   -0.0,    0.0,   -0.0,   -0.0,   -0.0,  999.0,    0.0,    0.0,   -0.0,    0.0,   -0.0,  999.0,  999.0,  999.0,  999.0,  999.0,  999.0,  999.0
2013/04/02 06:20,  999.0,    0.0,   -0.2,   -0.1,   -0.0,   -0.1,   -0.1,   -0.1,   -0.1,   -0.1,   -0.1,   -0.1,   -0.2,   -0.0,   -0.1,   -0.4,   -0.5,   -0.1,   -0.7,   -0.7,   -1.0,   -1.0,   -1.3,   -1.3,   -1.3,   -1.3,   -1.0,   -1.2,   -1.1,   -0.9,   -0.9,   -0.4,   -0.7,   -0.9,   -0.9,   -0.7,   -0.9,  999.0,   -0.0,   -0.1,   -0.0,   -0.0,    0.0,    0.0,    0.0,    0.0,   -0.0,   -0.0,    0.0,    0.0,    0.0,    0.0,   -0.0,   -0.0,   -0.0,    0.0,   -0.0,    0.0,    0.0,    0.0,   -0.1,   -0.0,   -0.0,   -0.0,   -0.0,   -0.1,   -0.0,   -0.0,    0.0,  999.0,   -0.0,    0.0,   -0.0,    0.0,   -0.0,  999.0,  999.0,  999.0,  999.0,  999.0
2013/04/02 06:30,   -1.5,   -1.6,   -1.2,   -1.5,   -2.2,   -1.6,   -2.1,   -2.0,   -2.0,   -1.5,   -1.7,   -1.8,   -1.7,   -2.1,   -1.5,   -1.3,   -1.2,   -1.1,   -0.9,   -0.7,   -1.2,   -1.4,   -1.5,   -1.4,   -1.6,   -1.7,   -1.9,   -1.7,   -1.5,   -1.6,   -1.5,   -1.2,   -1.1,   -1.0,   -1.0,   -0.9,   -0.5,    0.0,    0.0,   -0.1,    0.0,   -0.0,    0.0,   -0.1,   -0.0,    0.0,    0.0,   -0.0,    0.0,    0.0,    0.0,   -0.0,   -0.0,   -0.0,    0.0,   -0.0,   -0.0,    0.0,   -0.0,    0.0,   -0.0,    0.0,    0.0,   -0.0,   -0.0,   -0.0,   -0.0,    0.0,   -0.0,    0.0,  999.0,    0.0,    0.0,    0.0,    0.0,  999.0,  999.0,  999.0,  999.0,  999.0
2013/04/02 06:40,   -3.0,   -3.1,   -3.1,   -3.1,   -2.9,   -2.9,   -2.8,   -2.7,   -2.5,   -2.3,   -2.2,   -1.7,   -1.9,   -1.9,   -1.3,   -1.5,   -1.4,   -1.3,   -1.2,   -1.1,   -1.1,   -1.1,   -1.1,   -1.1,   -1.1,   -0.9,   -1.0,   -0.9,   -0.9,   -0.8,   -0.5,   -0.4,   -0.5,   -0.6,   -0.8,   -0.9,   -0.6,   -0.0,   -0.0,   -0.1,    0.0,   -0.1,   -0.0,    0.0,    0.0,   -0.0,   -0.0,   -0.0,    0.0,   -0.0,   -0.0,    0.0,   -0.0,   -0.0,   -0.0,   -0.0,    0.0,   -0.0,    0.0,  999.0,    0.1,   -0.0,   -0.1,    0.0,   -0.0,   -0.0,    0.0,    0.0,   -0.0,    0.0,   -0.0,    0.0,   -0.0,    0.0,   -0.0,  999.0,  999.0,  999.0,  999.0,  999.0
2013/04/02 06:50,   -2.5,   -2.5,   -2.5,   -2.5,   -2.5,   -2.4,   -2.4,   -2.3,   -2.2,   -2.0,   -2.1,   -2.0,   -1.9,   -1.7,   -1.2,   -0.9,   -0.8,   -0.8,   -0.6,   -0.6,   -0.6,   -0.6,   -0.6,   -0.6,   -0.6,   -0.6,   -0.6,   -0.5,   -0.4,   -0.2,   -0.1,   -0.3,   -0.3,   -0.4,   -0.4,   -0.3,  999.0,   -0.1,   -0.0,   -0.1,   -0.0,    0.0,    0.0,    0.1,    0.0,    0.0,   -0.0,    0.0,   -0.0,    0.0,    0.0,    0.0,   -0.0,   -0.0,    0.0,   -0.0,    0.0,    0.0,   -0.0,   -0.0,    0.0,   -0.0,    0.0,   -0.1,   -0.0,    0.0,   -0.0,   -0.0,    0.0,   -0.0,    0.0,    0.0,   -0.0,   -0.1,    0.0,  999.0,  999.0,  999.0,  999.0,  999.0
2013/04/02 07:00,   -2.0,   -2.0,   -2.2,   -2.2,   -2.2,   -2.3,   -2.2,   -2.2,   -2.1,   -2.2,   -2.2,   -2.3,   -2.4,   -2.3,   -1.5,   -1.4,   -1.3,   -1.2,   -1.0,   -1.0,   -0.9,   -0.8,   -0.8,   -0.8,   -0.7,   -0.6,   -0.5,   -0.5,   -0.4,   -0.6,   -0.5,   -0.6,   -0.4,   -0.3,  999.0,  999.0,   -0.1,  999.0,    0.0,   -0.1,   -0.0,   -0.0,   -0.0,   -0.0,   -0.1,  999.0,    0.0,   -0.0,   -0.0,   -0.0,   -0.0,    0.0,    0.0,   -0.0,   -0.0,   -0.0,    0.0,    0.0,    0.0,   -0.0,    0.0,   -0.1,    0.0,    0.0,    0.0,    0.0,   -0.0,  999.0,    0.1,   -0.0,   -0.0,   -0.0,   -0.0,  999.0,    0.0,  999.0,  999.0,  999.0,  999.0,  999.0
2013/04/02 07:10,   -3.7,   -3.4,   -3.3,   -3.3,   -3.1,   -2.7,   -2.5,   -2.5,   -2.4,   -2.5,   -2.5,   -2.3,   -2.1,   -2.0,   -1.3,   -1.0,   -0.8,   -0.7,   -0.5,   -0.4,   -0.5,   -0.5,   -0.5,   -0.4,   -0.3,   -0.4,   -0.4,   -0.5,   -0.6,   -0.5,   -0.6,   -0.6,   -0.5,    0.1,   -0.0,  999.0,  999.0,   -0.0,   -0.1,   -0.2,    0.0,    0.0,   -0.0,    0.0,    0.0,   -0.0,  999.0,    0.0,   -0.0,    0.0,  999.0,   -0.0,    0.0,    0.0,    0.0,    0.0,    0.0,   -0.1,   -0.0,    0.1,   -0.0,   -0.0,    0.0,    0.0,    0.0,    0.0,   -0.0,    0.0,    0.0,    0.0,    0.0,   -0.0,   -0.0,   -0.0,    0.0,  999.0,  999.0,  999.0,  999.0,    0.0
2013/04/02 07:20,  999.0,   -2.4,   -2.3,   -2.4,   -2.4,   -2.3,   -2.3,   -2.2,   -2.1,   -2.0,   -1.9,   -1.7,   -1.6,   -1.4,   -1.1,   -0.6,   -0.4,   -0.1,   -0.0,   -0.1,   -0.1,   -0.1,   -0.1,   -0.3,   -0.3,   -0.3,   -0.2,   -0.3,   -0.5,   -0.8,   -0.6,   -0.5,   -0.6,   -0.4,  999.0,   -0.4,   -0.7,  999.0,  999.0,   -0.1,  999.0,   -0.0,   -0.0,   -0.0,   -0.0,   -0.1,    0.1,   -0.0,   -0.0,   -0.0,    0.0,    0.0,    0.0,   -0.1,    0.1,   -0.0,    0.0,    0.0,   -0.1,    0.0,    0.0,   -0.0,   -0.0,   -0.1,    0.0,    0.0,   -0.0,  999.0,  999.0,  999.0,    0.0,   -0.0,   -0.0,    0.0,   -0.0,  999.0,  999.0,  999.0,  999.0,  999.0
2013/04/02 07:30,   -3.0,   -2.9,   -2.9,   -3.0,   -3.0,   -2.5,   -2.9,   -2.8,   -3.0,   -2.6,   -2.4,   -2.3,   -2.3,   -2.1,   -1.8,   -1.5,   -1.1,   -0.8,   -0.4,   -0.1,   -0.1,   -0.1,   -0.0,   -0.3,   -0.2,   -0.2,   -0.0,   -0.2,   -0.3,   -0.5,   -0.6,   -0.6,   -0.5,   -0.4,   -0.0,   -0.7,   -0.8,  999.0,   -0.7,   -0.2,   -0.0,    0.0,    0.0,    0.0,    0.1,    0.0,   -0.0,    0.0,   -0.0,   -0.0,    0.0,   -0.0,   -0.0,   -0.0,   -0.0,   -0.0,    0.0,    0.0,    0.0,    0.0,   -0.0,    0.0,   -0.0,   -0.0,    0.0,   -0.0,   -0.0,   -0.0,   -0.0,  999.0,    0.0,   -0.0,   -0.0,  999.0,  999.0,  999.0,  999.0,  999.0,  999.0,  999.0
2013/04/02 07:40,  999.0,   -1.6,  999.0,  999.0,   -1.9,   -2.1,   -2.1,   -2.2,   -2.3,   -2.2,   -2.2,   -2.2,   -2.2,   -2.1,   -1.7,   -1.1,   -0.6,   -0.8,   -0.2,   -0.2,   -0.3,   -0.1,   -0.2,   -0.2,   -0.3,   -0.3,   -0.2,   -0.4,   -0.2,   -0.2,   -0.3,   -0.3,   -0.2,   -0.2,  999.0,  999.0,   -0.1,   -0.1,  999.0,   -0.0,    0.0,    0.1,    0.1,    0.0,    0.0,   -0.0,    0.1,   -0.0,    0.0,    0.0,   -0.0,   -0.0,    0.0,    0.0,   -0.0,   -0.0,   -0.0,   -0.1,   -0.1,    0.0,   -0.0,   -0.1,    0.0,   -0.0,    0.0,    0.0,   -0.0,    0.0,   -0.0,  999.0,   -0.0,    0.0,    0.0,  999.0,    0.0,  999.0,  999.0,  999.0,  999.0,  999.0
2013/04/02 07:50,   -2.1,   -2.1,   -1.9,   -1.9,   -2.1,   -2.2,   -2.0,   -2.1,   -2.0,   -2.0,   -2.0,   -2.0,   -1.9,   -1.5,   -1.3,   -0.9,   -0.7,   -0.5,   -0.4,   -0.3,   -0.4,   -0.2,   -0.1,   -0.1,   -0.1,   -0.1,   -0.1,   -0.2,   -0.1,   -0.1,   -0.1,   -0.0,   -0.0,   -0.1,   -0.0,   -0.2,   -0.2,   -0.1,   -0.1,   -0.1,   -0.1,    0.0,   -0.0,    0.1,   -0.1,    0.0,   -0.0,    0.0,   -0.0,   -0.0,    0.0,    0.0,   -0.0,    0.0,    0.0,   -0.0,   -0.0,    0.0,   -0.0,    0.0,   -0.0,   -0.0,   -0.0,   -0.0,   -0.0,   -0.1,   -0.0,    0.1,    0.1,  999.0,    0.0,    0.0,   -0.0,   -0.0,   -0.0,  999.0,  999.0,  999.0,  999.0,  999.0
2013/04/02 08:00,    0.0,    0.0,   -0.1,   -0.1,    0.0,  999.0,  999.0,   -0.5,   -0.4,   -0.5,  999.0,  999.0,  999.0,  999.0,   -2.2,   -1.5,   -1.2,   -1.4,   -1.0,   -0.9,   -1.0,   -1.0,   -0.8,   -1.1,   -0.9,   -0.6,   -0.6,   -0.8,   -0.9,   -0.9,   -0.8,   -0.7,   -0.6,   -0.4,   -0.4,   -0.4,   -0.4,   -0.4,   -0.3,   -0.3,   -0.1,    0.1,    0.1,   -0.1,   -0.0,   -0.0,    0.0,    0.0,    0.1,   -0.0,   -0.0,    0.0,    0.0,    0.0,   -0.0,    0.0,   -0.0,  999.0,    0.0,   -0.0,   -0.0,   -0.1,    0.0,    0.0,    0.0,  999.0,    0.0,    0.0,   -0.0,  999.0,    0.0,   -0.0,   -0.0,    0.0,    0.0,  999.0,  999.0,  999.0,  999.0,  999.0
2013/04/02 08:10,   -3.8,   -3.8,   -3.8,   -3.8,   -3.8,   -3.6,   -3.5,   -3.4,   -3.3,   -3.2,   -3.2,   -2.9,   -2.9,   -2.7,   -1.9,   -1.7,   -1.6,   -1.6,   -1.7,   -1.6,   -1.5,   -1.5,   -1.6,   -1.5,   -1.3,   -1.3,   -1.3,   -1.2,   -1.1,   -1.1,   -1.0,   -0.9,   -0.9,   -0.9,   -0.7,   -0.6,   -0.4,   -0.3,   -0.4,   -0.2,    0.1,    0.2,    0.3,    0.1,    0.1,   -0.0,    0.0,    0.0,    0.0,   -0.0,    0.0,    0.0,   -0.1,    0.0,    0.0,   -0.0,   -0.0,    0.1,    0.0,    0.0,   -0.1,   -0.1,    0.0,   -0.1,    0.0,    0.0,   -0.0,   -0.1,    0.1,  999.0,    0.0,    0.0,    0.1,  999.0,  999.0,  999.0,  999.0,  999.0,  999.0,  999.0
2013/04/02 08:20,   -3.3,   -3.2,   -3.3,   -3.5,   -3.5,   -3.4,   -3.4,   -3.2,   -3.0,   -2.9,   -2.9,   -2.8,   -2.8,   -2.6,   -1.9,   -1.5,   -1.5,   -1.4,   -1.4,   -1.3,   -1.3,   -1.3,   -1.2,   -1.1,   -1.2,   -1.0,   -0.9,   -0.8,   -0.7,   -0.7,   -0.7,   -0.8,   -0.8,   -1.0,   -0.9,   -0.8,   -0.7,   -0.6,   -0.6,   -0.4,   -0.1,    0.1,    0.0,   -0.1,   -0.0,   -0.0,   -0.0,    0.0,   -0.0,   -0.1,   -0.0,   -0.1,    0.0,   -0.0,    0.0,   -0.0,    0.1,   -0.0,   -0.0,  999.0,   -0.0,   -0.1,  999.0,    0.1,   -0.2,   -0.0,    0.0,   -0.0,   -0.0,  999.0,    0.0,    0.0,   -0.0,    0.0,  999.0,  999.0,  999.0,  999.0,  999.0,  999.0
2013/04/02 08:30,   -3.6,   -3.6,   -3.6,   -3.7,   -3.7,   -3.8,   -3.9,   -4.0,   -4.2,   -4.1,   -3.9,   -4.0,   -3.6,   -2.7,   -2.1,   -1.9,   -1.8,   -1.7,   -1.6,   -1.5,   -1.4,   -1.3,   -1.3,   -1.2,   -1.1,   -1.0,   -1.0,   -0.9,   -0.9,   -0.8,   -0.7,   -0.5,   -0.5,   -0.5,   -0.3,   -0.1,   -0.1,   -0.1,   -0.1,   -0.2,   -0.0,    0.2,    0.1,   -0.2,   -0.0,    0.0,   -0.1,    0.0,    0.0,    0.0,   -0.0,    0.0,    0.0,   -0.0,    0.0,    0.0,   -0.0,    0.0,   -0.0,    0.0,   -0.0,   -0.1,   -0.1,    0.0,    0.0,    0.0,   -0.0,   -0.0,  999.0,    0.1,  999.0,    0.1,  999.0,   -0.1,  999.0,  999.0,  999.0,  999.0,  999.0,  999.0
2013/04/02 08:40,   -3.9,   -4.0,   -3.9,   -3.9,   -3.9,   -3.8,   -3.7,   -3.7,   -3.7,   -3.6,   -3.5,   -3.5,   -3.2,   -2.5,   -1.8,   -1.6,   -1.4,   -1.3,   -1.3,   -1.3,   -1.2,   -1.2,   -1.1,   -1.0,   -1.0,   -0.9,   -0.9,   -0.9,   -0.9,   -0.9,   -0.9,   -0.9,   -0.8,   -0.7,   -0.7,   -0.7,   -0.6,   -0.6,   -0.5,   -0.3,   -0.4,   -0.2,    0.1,    0.1,    0.2,    0.1,    0.2,    0.0,    0.0,   -0.0,    0.0,   -0.0,   -0.1,    0.0,    0.0,    0.0,   -0.0,   -0.0,    0.0,   -0.1,   -0.1,    0.0,   -0.0,    0.0,   -0.0,   -0.0,   -0.1,    0.1,   -0.0,  999.0,  999.0,    0.1,    0.1,   -0.0,  999.0,  999.0,  999.0,  999.0,  999.0,  999.0
2013/04/02 08:50,   -4.4,   -4.4,   -4.4,   -4.5,   -4.6,   -4.5,   -4.5,   -4.5,   -4.3,   -4.2,   -4.2,   -4.2,   -3.5,   -2.4,   -1.8,   -1.6,   -1.4,   -1.3,   -1.3,   -1.3,   -1.3,   -1.3,   -1.3,   -1.2,   -1.2,   -1.1,   -1.0,   -1.0,   -1.0,   -1.0,   -0.9,   -0.9,   -0.7,   -0.6,   -0.6,   -0.5,   -0.5,   -0.4,   -0.2,   -0.1,    0.0,    0.3,    0.2,    0.1,    0.3,    0.2,  999.0,  999.0,   -0.0,  999.0,  999.0,  999.0,    0.0,   -0.0,   -0.0,   -0.0,    0.1,    0.0,  999.0,    0.0,   -0.0,  999.0,    0.0,  999.0,    0.1,   -0.0,    0.0,  999.0,  999.0,  999.0,  999.0,    0.1,  999.0,  999.0,    0.0,  999.0,  999.0,  999.0,  999.0,  999.0
2013/04/02 09:00,   -4.5,   -4.6,   -4.7,   -4.4,   -4.3,   -4.5,   -4.5,   -4.1,   -4.8,   -5.0,   -4.3,   -4.3,   -3.9,   -2.6,   -1.9,   -1.5,   -1.3,   -1.4,   -1.4,   -1.3,   -1.3,   -1.3,   -1.3,   -1.1,   -1.0,   -1.0,   -0.9,   -0.9,   -0.8,   -0.8,   -0.9,   -0.9,   -0.8,   -0.8,   -0.8,   -0.7,   -0.6,   -0.5,   -0.4,   -0.4,   -0.2,   -0.3,   -0.1,   -0.1,    0.0,  999.0,  999.0,  999.0,  999.0,  999.0,  999.0,  999.0,  999.0,   -0.0,    0.0,   -0.0,    0.0,   -0.0,   -0.0,   -0.0,    0.0,    0.1,    0.0,  999.0,    0.0,    0.1,    0.1,  999.0,  999.0,  999.0,  999.0,  999.0,    0.0,    0.0,  999.0,  999.0,  999.0,  999.0,  999.0,  999.0
2013/04/02 09:10,   -4.4,   -4.5,   -4.5,   -4.4,   -4.5,   -4.5,   -4.6,   -4.8,   -5.0,   -4.9,   -5.0,   -4.7,   -3.8,   -2.9,   -2.3,   -2.0,   -1.9,   -1.7,   -1.6,   -1.4,   -1.4,   -1.3,   -1.4,   -1.3,   -1.5,   -1.4,   -1.3,   -1.3,   -1.3,   -1.3,   -1.2,   -1.1,   -1.3,   -1.2,   -1.1,   -1.0,   -0.8,   -0.7,   -0.6,   -0.3,   -0.2,    0.1,    0.0,    0.2,  999.0,  999.0,  999.0,  999.0,  999.0,  999.0,  999.0,  999.0,   -0.0,    0.0,    0.0,    0.0,   -0.0,   -0.0,    0.0,    0.0,    0.0,    0.0,   -0.1,    0.0,    0.0,    0.1,  999.0,  999.0,  999.0,  999.0,  999.0,  999.0,    0.1,  999.0,  999.0,  999.0,  999.0,  999.0,  999.0,  999.0
2013/04/02 09:20,   -4.1,   -4.1,   -4.1,   -4.1,   -4.1,   -4.0,   -4.0,   -3.9,   -4.0,   -3.9,   -3.9,   -3.9,   -3.5,   -2.8,   -2.3,   -1.8,   -1.8,   -1.7,   -1.5,   -1.5,   -1.7,   -1.7,   -1.7,   -1.6,   -1.6,   -1.5,   -1.4,   -1.5,   -1.3,   -1.2,   -1.2,   -1.2,   -1.2,   -1.0,   -1.0,   -0.7,   -0.6,   -0.5,   -0.4,   -0.4,   -0.3,   -0.2,   -0.1,   -0.0,   -0.4,  999.0,  999.0,  999.0,  999.0,   -0.0,  999.0,    0.0,   -0.0,    0.0,  999.0,    0.0,   -0.0,    0.0,    0.0,   -0.0,   -0.0,    0.0,   -0.0,   -0.1,   -0.0,    0.0,   -0.0,  999.0,  999.0,  999.0,  999.0,  999.0,  999.0,  999.0,  999.0,  999.0,  999.0,  999.0,  999.0,  999.0
2013/04/02 09:30,   -4.5,   -4.6,   -4.7,   -4.7,   -4.7,   -4.7,   -4.7,   -4.7,   -4.7,   -4.8,   -5.0,   -4.6,   -3.5,   -2.7,   -2.3,   -2.1,   -2.1,   -2.1,   -2.0,   -1.9,   -1.8,   -1.7,   -1.6,   -1.6,   -1.5,   -1.5,   -1.3,   -1.4,   -1.4,   -1.3,   -1.3,   -1.2,   -1.2,   -1.1,   -1.0,   -0.8,   -0.7,   -0.5,   -0.4,   -0.3,   -0.1,   -0.0,    0.0,    0.3,  999.0,  999.0,  999.0,  999.0,   -0.0,    0.0,    0.0,   -0.0,    0.0,    0.0,   -0.0,    0.0,    0.1,    0.0,   -0.1,   -0.0,    0.0,   -0.0,    0.0,    0.0,   -0.0,   -0.0,    0.0,  999.0,  999.0,  999.0,  999.0,  999.0,  999.0,  999.0,  999.0,  999.0,  999.0,  999.0,  999.0,  999.0
2013/04/02 09:40,   -4.6,   -4.6,   -4.7,   -4.8,   -4.8,   -4.9,   -4.9,   -5.0,   -5.1,   -5.0,   -4.9,   -4.5,   -3.2,   -2.5,   -2.1,   -1.8,   -1.8,   -1.7,   -1.6,   -1.5,   -1.5,   -1.4,   -1.3,   -1.3,   -1.2,   -1.2,   -1.3,   -1.3,   -1.4,   -1.4,   -1.3,   -1.3,   -1.2,   -1.1,   -1.0,   -0.9,   -0.7,   -0.5,   -0.5,   -0.3,   -0.1,   -0.1,    0.0,    0.6,  999.0,  999.0,  999.0,  999.0,    0.0,  999.0,  999.0,  999.0,  999.0,   -0.0,   -0.1,   -0.0,   -0.0,    0.0,    0.0,   -0.0,   -0.0,   -0.1,  999.0,    0.1,    0.0,    0.0,  999.0,  999.0,  999.0,  999.0,  999.0,  999.0,  999.0,  999.0,  999.0,  999.0,  999.0,  999.0,  999.0,  999.0
2013/04/02 09:50,   -3.9,   -3.9,   -3.9,   -4.1,   -3.9,   -4.0,   -3.9,   -3.9,   -4.0,   -3.9,   -3.9,   -3.8,   -3.5,   -2.9,   -2.2,   -1.7,   -1.6,   -1.6,   -1.5,   -1.5,   -1.5,   -1.4,   -1.3,   -1.3,   -1.2,   -1.2,   -1.3,   -1.3,   -1.4,   -1.4,   -1.3,   -1.2,   -1.1,   -0.9,   -0.7,   -0.6,   -0.5,   -0.4,   -0.4,   -0.3,   -0.1,   -0.0,    0.0,  999.0,   -0.3,   -0.1,  999.0,   -0.0,    0.0,  999.0,  999.0,  999.0,   -0.0,  999.0,    0.0,    0.1,    0.0,   -0.1,   -0.2,   -0.0,    0.1,   -0.0,    0.0,   -0.0,   -0.0,    0.0,    0.0,  999.0,  999.0,  999.0,  999.0,   -0.0,  999.0,  999.0,  999.0,  999.0,  999.0,  999.0,  999.0,  999.0
2013/04/02 10:00,   -2.2,   -2.3,   -2.3,   -2.5,   -2.5,   -2.8,   -2.8,   -2.9,   -3.1,   -3.1,   -3.0,   -2.9,   -3.0,   -2.6,   -2.1,   -1.8,   -1.7,   -1.7,   -1.6,   -1.6,   -1.5,   -1.4,   -1.2,   -1.0,   -1.0,   -1.1,   -1.1,   -1.2,   -1.2,   -1.2,   -1.2,   -1.0,   -0.8,   -0.6,   -0.6,   -0.3,   -0.2,   -0.0,    0.0,   -0.1,    0.3,    0.3,    0.0,    0.2,    0.1,    0.3,  999.0,   -0.0,    0.1,  999.0,    0.1,    0.0,  999.0,  999.0,    0.1,    0.0,   -0.0,    0.1,   -0.0,    0.0,  999.0,    0.0,    0.0,  999.0,   -0.0,   -0.0,  999.0,  999.0,  999.0,  999.0,   -0.1,  999.0,  999.0,  999.0,  999.0,  999.0,  999.0,  999.0,  999.0,  999.0
2013/04/02 10:10,   -2.8,   -3.0,   -3.0,   -3.2,   -3.3,   -3.3,   -3.3,   -3.4,   -3.4,   -3.3,   -3.3,   -3.2,   -3.0,   -2.6,   -2.1,   -2.1,   -2.1,   -2.1,   -2.0,   -2.0,   -1.9,   -1.8,   -1.8,   -1.7,   -1.7,   -1.5,   -1.4,   -1.5,   -1.4,   -1.5,   -1.6,   -1.5,   -1.4,   -1.3,   -1.1,   -1.0,   -0.8,   -0.8,   -0.7,   -0.6,   -0.1,   -0.3,   -0.3,   -0.3,    0.1,    0.1,   -0.2,    0.1,    0.1,    0.1,    0.1,  999.0,  999.0,  999.0,  999.0,  999.0,  999.0,  999.0,    0.0,  999.0,  999.0,   -0.0,   -0.0,  999.0,   -0.0,  999.0,  999.0,  999.0,  999.0,  999.0,  999.0,  999.0,  999.0,  999.0,  999.0,  999.0,  999.0,  999.0,  999.0,  999.0
2013/04/02 10:20,   -5.2,   -5.5,   -5.6,   -5.7,   -5.7,   -5.7,   -5.6,   -5.7,   -5.7,   -5.6,   -5.3,   -3.9,   -3.1,   -2.7,   -2.4,   -2.3,   -2.3,   -2.2,   -2.2,   -2.2,   -2.2,   -2.0,   -1.9,   -1.7,   -1.7,   -1.6,   -1.6,   -1.5,   -1.3,   -1.4,   -1.7,   -1.8,   -1.8,   -1.8,   -1.5,   -1.1,   -0.9,   -0.9,   -0.9,   -0.9,   -0.6,   -0.2,   -0.5,   -0.3,   -0.2,   -0.5,   -0.2,    0.1,   -0.3,   -0.1,  999.0,  999.0,    0.0,    0.1,  999.0,   -0.0,   -0.0,  999.0,  999.0,  999.0,  999.0,    0.0,  999.0,  999.0,   -0.0,  999.0,  999.0,  999.0,  999.0,  999.0,  999.0,  999.0,  999.0,  999.0,  999.0,  999.0,  999.0,  999.0,  999.0,  999.0
2013/04/02 10:30,   -4.5,   -4.5,   -4.5,   -4.5,   -4.8,   -4.7,   -4.7,   -4.9,   -4.8,   -4.6,   -4.8,   -4.4,   -3.4,   -2.7,   -2.3,   -2.1,   -2.1,   -2.1,   -2.0,   -2.0,   -1.8,   -1.7,   -1.7,   -1.6,   -1.5,   -1.5,   -1.5,   -1.5,   -1.4,   -1.4,   -1.4,   -1.3,   -1.2,   -1.1,   -1.0,   -0.9,   -0.9,   -0.9,   -0.9,   -1.0,   -0.8,   -0.7,   -0.5,   -0.8,   -0.7,   -0.6,   -0.4,   -0.5,   -0.4,   -0.4,   -0.3,   -0.4,  999.0,  999.0,  999.0,   -0.1,  999.0,  999.0,  999.0,  999.0,  999.0,  999.0,    0.1,    0.0,   -0.0,   -0.0,  999.0,  999.0,  999.0,  999.0,  999.0,  999.0,  999.0,  999.0,  999.0,  999.0,  999.0,  999.0,  999.0,  999.0
2013/04/02 10:40,   -5.1,   -5.2,   -5.2,   -5.2,   -5.3,   -5.4,   -5.5,   -5.4,   -5.3,   -5.4,   -5.2,   -4.9,   -3.8,   -3.0,   -2.5,   -2.3,   -2.2,   -2.2,   -2.1,   -2.0,   -1.9,   -1.8,   -1.7,   -1.6,   -1.5,   -1.4,   -1.3,   -1.3,   -1.2,   -1.2,   -1.2,   -1.1,   -1.1,   -1.0,   -1.0,   -1.0,   -1.0,   -0.9,   -0.8,   -0.7,   -0.6,   -0.5,   -0.4,   -0.3,   -0.2,   -0.1,    0.0,    0.2,    0.3,   -0.0,  999.0,  999.0,  999.0,  999.0,  999.0,   -0.0,   -0.0,    0.0,    0.1,  999.0,  999.0,    0.0,   -0.0,    0.1,    0.0,  999.0,  999.0,  999.0,  999.0,  999.0,  999.0,   -0.1,  999.0,  999.0,  999.0,  999.0,  999.0,  999.0,  999.0,  999.0
2013/04/02 10:50,   -5.1,   -5.1,   -5.1,   -5.1,   -5.1,   -5.1,   -5.1,   -5.1,   -5.0,   -5.0,   -5.1,   -5.1,   -3.8,   -2.9,   -2.4,   -2.2,   -2.1,   -2.1,   -2.0,   -1.9,   -1.8,   -1.7,   -1.7,   -1.6,   -1.5,   -1.4,   -1.4,   -1.3,   -1.3,   -1.3,   -1.3,   -1.2,   -1.2,   -1.2,   -1.1,   -1.0,   -0.9,   -0.7,   -0.6,   -0.5,   -0.3,   -0.2,   -0.1,    0.0,    0.1,    0.3,    0.4,    0.1,  999.0,  999.0,  999.0,  999.0,  999.0,  999.0,  999.0,   -0.0,  999.0,  999.0,  999.0,  999.0,  999.0,  999.0,    0.1,    0.1,    0.0,   -0.0,  999.0,  999.0,  999.0,  999.0,  999.0,  999.0,  999.0,  999.0,  999.0,  999.0,  999.0,  999.0,  999.0,  999.0
2013/04/02 11:00,   -5.2,   -5.4,   -5.3,   -5.3,   -5.2,   -5.3,   -5.2,   -5.1,   -5.1,   -4.7,   -4.9,   -4.7,   -4.0,   -3.3,   -2.5,   -2.1,   -1.9,   -1.9,   -1.8,   -1.4,   -1.3,   -1.5,   -1.1,   -0.9,   -0.9,   -0.9,   -1.2,   -1.4,   -1.5,   -1.3,   -1.1,   -1.1,   -1.2,   -0.8,   -0.7,   -0.6,   -0.4,   -0.3,   -0.1,    0.1,    0.1,    0.2,    0.2,    0.3,    0.3,    0.5,  999.0,  999.0,  999.0,  999.0,    0.1,  999.0,  999.0,  999.0,  999.0,  999.0,  999.0,   -0.1,  999.0,  999.0,  999.0,    0.0,   -0.2,    0.0,   -0.0,  999.0,  999.0,  999.0,  999.0,  999.0,  999.0,  999.0,  999.0,  999.0,  999.0,  999.0,  999.0,  999.0,  999.0,  999.0
2013/04/02 11:10,   -4.4,   -3.3,   -2.9,   -3.0,   -2.8,   -2.7,   -2.7,   -2.7,   -2.1,   -2.4,   -2.0,   -1.8,   -1.7,   -1.8,   -1.0,   -0.7,   -0.7,   -0.2,   -0.1,   -0.1,   -0.1,   -0.1,   -0.0,    0.1,    0.1,   -0.1,    0.0,   -0.0,  999.0,    0.0,    0.1,    0.2,    0.4,    0.3,    0.4,    0.4,    0.4,    0.5,    0.4,    0.3,    0.9,  999.0,  999.0,  999.0,  999.0,  999.0,  999.0,  999.0,  999.0,  999.0,  999.0,  999.0,  999.0,  999.0,  999.0,  999.0,    0.1,  999.0,  999.0,  999.0,  999.0,   -0.1,    0.0,   -0.0,   -0.0,   -0.0,  999.0,  999.0,  999.0,  999.0,  999.0,  999.0,  999.0,  999.0,  999.0,  999.0,  999.0,  999.0,  999.0,  999.0
2013/04/02 11:20,   -0.0,    0.0,   -0.0,   -0.7,   -0.9,   -0.9,   -1.5,   -1.2,   -1.1,   -1.0,   -0.8,   -0.8,   -0.9,   -0.9,   -0.8,   -0.7,   -0.5,   -0.2,   -0.1,   -0.2,   -0.1,   -0.2,   -0.2,   -0.3,   -0.3,   -0.1,    0.0,    0.1,  999.0,   -0.1,   -0.2,   -0.1,   -0.0,   -0.0,    0.1,    0.2,    0.2,    0.2,    0.1,   -0.1,    0.2,  999.0,  999.0,  999.0,  999.0,  999.0,  999.0,  999.0,  999.0,  999.0,  999.0,  999.0,  999.0,  999.0,  999.0,  999.0,  999.0,  999.0,   -0.0,  999.0,  999.0,    0.0,  999.0,   -0.0,   -0.0,    0.0,  999.0,  999.0,  999.0,  999.0,  999.0,  999.0,  999.0,  999.0,  999.0,  999.0,  999.0,  999.0,  999.0,  999.0
2013/04/02 11:30,   -0.0,   -0.2,   -0.2,   -0.3,   -0.2,   -0.2,   -0.1,   -0.0,   -0.0,   -0.0,   -0.1,   -0.2,   -0.5,   -0.9,   -1.1,   -1.0,   -1.0,   -0.6,   -0.5,   -0.5,   -0.5,   -0.6,   -0.4,   -0.4,   -0.3,   -0.1,   -0.1,   -0.2,   -0.2,   -0.1,    0.1,    0.0,   -0.0,   -0.1,   -0.0,    0.2,  999.0,    0.1,    0.0,   -0.1,    0.1,  999.0,  999.0,  999.0,  999.0,  999.0,  999.0,  999.0,  999.0,  999.0,  999.0,  999.0,  999.0,  999.0,  999.0,  999.0,  999.0,    0.0,  999.0,  999.0,  999.0,   -0.0,   -0.1,   -0.1,    0.0,    0.0,  999.0,  999.0,  999.0,  999.0,  999.0,  999.0,  999.0,  999.0,  999.0,  999.0,  999.0,  999.0,  999.0,  999.0
2013/04/02 11:40,   -0.0,    0.0,   -0.5,   -0.6,   -1.2,   -1.3,   -1.5,   -1.5,   -1.8,   -1.9,   -1.8,   -1.6,   -1.5,   -1.3,   -1.1,   -0.9,   -0.6,   -0.1,   -0.1,   -0.0,   -0.2,   -0.0,   -0.0,    0.0,    0.1,   -0.0,   -0.0,    0.1,    0.1,    0.2,    0.3,    0.4,    0.3,    0.3,    0.3,  999.0,    0.4,    0.6,    0.6,  999.0,  999.0,  999.0,  999.0,  999.0,  999.0,  999.0,  999.0,  999.0,  999.0,  999.0,  999.0,  999.0,  999.0,  999.0,  999.0,   -0.0,  999.0,    0.0,  999.0,  999.0,   -0.0,   -0.0,    0.0,   -0.0,    0.0,   -0.0,  999.0,  999.0,  999.0,  999.0,  999.0,  999.0,  999.0,  999.0,  999.0,  999.0,  999.0,  999.0,  999.0,  999.0
2013/04/02 11:50,  999.0,   -1.9,   -2.1,   -2.0,   -2.1,   -2.1,   -2.0,   -1.9,   -1.7,   -1.5,   -1.5,   -1.4,   -1.3,   -1.2,   -1.0,   -0.7,   -0.5,   -0.1,    0.0,    0.1,    0.1,    0.1,    0.2,    0.1,    0.2,    0.1,   -0.0,   -0.1,   -0.1,   -0.0,    0.1,    0.3,    0.5,    0.6,    0.5,    0.4,  999.0,  999.0,    0.8,  999.0,  999.0,  999.0,  999.0,  999.0,   -0.1,  999.0,  999.0,    0.0,  999.0,   -0.0,  999.0,    0.0,   -0.0,    0.0,   -0.0,   -0.1,    0.1,   -0.0,   -0.0,   -0.0,    0.0,   -0.0,   -0.0,   -0.0,   -0.0,   -0.0,  999.0,  999.0,  999.0,  999.0,  999.0,   -0.0,  999.0,  999.0,  999.0,  999.0,  999.0,  999.0,  999.0,  999.0
2013/04/02 12:00,   -2.2,   -2.3,   -2.3,   -2.4,   -2.4,   -2.3,   -2.2,   -2.1,   -2.3,   -1.9,   -1.9,   -1.6,   -1.5,   -1.4,   -1.3,   -1.1,   -0.9,   -0.6,   -0.5,   -0.3,   -0.1,   -0.1,   -0.0,    0.0,    0.0,   -0.1,    0.0,    0.2,    0.2,    0.3,    0.3,    0.4,    0.6,    0.5,    0.7,    0.5,  999.0,    0.7,    1.0,  999.0,    0.0,  999.0,  999.0,  999.0,    0.0,  999.0,  999.0,   -0.0,   -0.1,    0.0,    0.0,    0.0,    0.0,   -0.0,    0.0,    0.0,   -0.0,    0.0,   -0.0,    0.0,   -0.0,    0.0,   -0.1,    0.0,    0.0,    0.0,    0.0,  999.0,    0.0,  999.0,  999.0,  999.0,  999.0,  999.0,    0.2,  999.0,  999.0,  999.0,  999.0,  999.0
2013/04/02 12:10,   -1.8,   -2.2,   -2.2,   -2.3,   -2.3,   -2.3,   -2.3,   -2.2,   -2.2,   -2.1,   -2.0,   -1.9,   -1.9,   -1.8,   -1.7,   -1.6,   -1.3,   -1.0,   -0.7,   -0.5,   -0.4,   -0.2,   -0.3,   -0.3,   -0.3,   -0.2,   -0.0,   -0.3,   -0.3,   -0.2,   -0.1,    0.1,    0.1,   -0.1,   -0.0,    0.1,  999.0,  999.0,  999.0,  999.0,  999.0,  999.0,  999.0,   -0.0,    0.0,   -0.0,  999.0,  999.0,  999.0,   -0.0,    0.0,   -0.0,    0.0,    0.0,   -0.1,   -0.0,    0.0,   -0.0,    0.0,    0.0,   -0.0,   -0.0,   -0.1,    0.0,   -0.0,    0.1,    0.0,  999.0,    0.1,  999.0,  999.0,  999.0,  999.0,  999.0,  999.0,  999.0,    0.1,  999.0,    0.0,  999.0
2013/04/02 12:20,   -1.5,   -2.0,   -2.0,   -2.0,   -1.8,   -2.0,   -2.0,   -2.1,   -2.0,   -2.0,   -1.8,   -1.9,   -1.9,   -1.8,   -1.5,   -1.4,   -1.2,   -0.7,   -0.4,   -0.3,   -0.2,   -0.2,   -0.2,   -0.2,   -0.2,   -0.1,    0.0,   -0.2,   -0.3,   -0.2,   -0.0,    0.1,    0.1,    0.3,    0.3,  999.0,  999.0,  999.0,  999.0,  999.0,   -0.0,   -0.0,   -0.0,  999.0,  999.0,  999.0,    0.3,    0.3,  999.0,   -0.1,  999.0,    0.0,  999.0,   -0.0,    0.0,   -0.0,   -0.0,   -0.0,    0.0,    0.0,   -0.0,   -0.0,    0.0,    0.0,    0.0,    0.0,    0.0,  999.0,   -0.1,  999.0,  999.0,  999.0,  999.0,  999.0,  999.0,  999.0,  999.0,  999.0,  999.0,  999.0
2013/04/02 12:30,   -0.0,   -0.8,   -0.9,   -0.4,   -0.7,   -0.6,   -0.9,   -0.9,   -1.1,   -1.2,   -1.3,   -1.3,   -1.0,   -0.7,   -0.7,   -0.7,   -0.8,   -0.5,   -0.3,   -0.2,   -0.2,   -0.2,   -0.2,   -0.1,   -0.1,   -0.0,   -0.2,   -0.2,   -0.1,    0.0,    0.2,    0.2,    0.2,    0.3,    0.4,   -0.1,    0.0,    0.1,   -0.0,  999.0,   -0.0,    0.1,    0.0,   -0.0,  999.0,    0.5,    0.3,    0.5,    0.1,  999.0,    0.0,    0.0,   -0.0,  999.0,    0.0,   -0.0,   -0.0,    0.0,   -0.0,   -0.0,    0.0,   -0.0,    0.0,    0.0,    0.1,    0.0,    0.0,    0.0,   -0.0,  999.0,  999.0,  999.0,  999.0,  999.0,  999.0,  999.0,  999.0,  999.0,  999.0,  999.0
2013/04/02 12:40,    0.0,   -0.4,   -0.4,   -0.4,   -0.5,   -0.5,   -0.8,   -0.8,   -0.7,   -0.8,   -1.0,   -1.1,   -0.9,   -0.8,   -0.7,   -1.1,   -1.1,   -0.6,   -0.4,   -0.4,   -0.2,   -0.4,   -0.2,   -0.3,   -0.1,   -0.2,   -0.4,   -0.4,   -0.3,   -0.1,   -0.1,    0.1,    0.2,    0.3,  999.0,    0.1,  999.0,  999.0,   -0.0,  999.0,   -0.0,    0.0,  999.0,   -0.0,  999.0,  999.0,  999.0,    0.5,  999.0,    0.0,   -0.1,  999.0,   -0.0,    0.1,  999.0,    0.0,    0.0,   -0.0,    0.0,   -0.0,  999.0,   -0.0,    0.0,    0.0,    0.0,   -0.0,    0.0,    0.0,   -0.0,  999.0,  999.0,  999.0,  999.0,  999.0,  999.0,  999.0,  999.0,  999.0,  999.0,  999.0
2013/04/02 12:50,   -0.0,   -0.2,   -0.2,   -0.2,   -0.2,   -0.2,   -0.4,   -0.3,   -0.4,   -0.3,   -0.2,   -0.4,   -0.5,   -0.6,   -0.5,   -0.4,   -0.3,   -0.2,   -0.1,   -0.1,   -0.1,    0.0,   -0.1,   -0.3,   -0.3,   -0.5,   -0.3,   -0.3,   -0.2,   -0.1,   -0.1,   -0.2,   -0.1,   -0.1,   -0.3,   -0.0,   -0.0,    0.1,    0.0,  999.0,    0.0,   -0.0,    0.0,    0.0,  999.0,  999.0,  999.0,   -0.0,    0.0,    0.0,  999.0,  999.0,   -0.1,    0.0,   -0.0,   -0.0,   -0.0,  999.0,  999.0,    0.0,    0.0,   -0.0,   -0.1,    0.0,   -0.0,    0.0,   -0.1,    0.0,  999.0,  999.0,  999.0,  999.0,  999.0,  999.0,  999.0,  999.0,  999.0,  999.0,  999.0,  999.0
2013/04/02 13:00,   -0.0,   -0.0,    0.0,   -0.1,   -0.1,   -0.2,   -0.3,   -0.3,   -0.4,   -0.4,   -0.4,   -0.6,   -0.6,   -0.6,   -0.4,   -0.4,   -0.3,   -0.2,   -0.1,   -0.3,   -0.2,   -0.2,   -0.3,   -0.5,   -0.5,   -0.5,   -0.6,   -0.5,   -0.4,   -0.4,   -0.5,   -0.4,   -0.5,   -0.6,  999.0,   -0.0,   -0.1,    0.0,    0.0,   -0.3,  999.0,    0.0,  999.0,  999.0,    0.0,  999.0,  999.0,   -0.3,  999.0,  999.0,    0.1,  999.0,  999.0,    0.0,   -0.0,   -0.0,    0.0,  999.0,  999.0,  999.0,  999.0,    0.0,   -0.0,   -0.0,   -0.0,    0.0,    0.0,  999.0,   -0.0,  999.0,  999.0,  999.0,  999.0,  999.0,  999.0,  999.0,  999.0,  999.0,  999.0,  999.0
2013/04/02 13:10,    0.0,   -0.0,   -0.1,   -0.1,   -0.1,   -0.3,   -0.4,   -0.6,   -0.7,   -0.7,   -0.8,   -0.9,   -1.0,   -1.0,   -0.9,   -0.7,   -0.9,   -0.4,   -0.1,   -0.3,   -0.7,   -0.8,   -0.8,   -0.8,   -0.6,   -0.6,   -0.7,   -0.5,   -0.6,   -0.6,   -0.3,   -0.4,   -0.5,   -0.3,   -0.2,    0.0,  999.0,    0.0,    0.0,  999.0,  999.0,    0.0,    0.0,  999.0,    0.0,    0.1,    0.0,   -0.1,   -0.0,    0.0,   -0.0,   -0.0,   -0.0,   -0.0,    0.0,  999.0,   -0.0,   -0.0,   -0.0,  999.0,  999.0,   -0.0,   -0.0,    0.0,   -0.0,   -0.0,   -0.0,  999.0,   -0.1,  999.0,  999.0,   -0.0,  999.0,  999.0,  999.0,  999.0,  999.0,  999.0,  999.0,  999.0
2013/04/02 13:20,   -0.0,   -0.1,   -0.1,   -0.3,   -0.4,   -0.5,   -0.7,   -0.8,   -1.0,   -1.1,   -1.0,   -1.0,   -0.9,   -0.8,   -0.7,   -0.7,   -0.6,   -0.4,   -0.1,   -0.1,   -0.6,   -0.6,   -0.7,   -0.4,   -0.6,   -0.4,   -0.3,   -0.3,   -0.3,   -0.2,   -0.1,   -0.2,   -0.1,  999.0,    0.0,    0.0,    0.0,   -0.1,   -0.0,  999.0,   -0.0,  999.0,    0.0,  999.0,   -0.0,    0.1,  999.0,   -0.1,   -0.1,  999.0,    0.0,   -0.1,   -0.0,    0.0,   -0.0,    0.1,  999.0,  999.0,   -0.1,  999.0,   -0.1,    0.0,   -0.0,   -0.0,   -0.0,   -0.0,    0.0,  999.0,    0.0,   -0.1,    0.0,    0.0,  999.0,  999.0,  999.0,  999.0,  999.0,  999.0,  999.0,  999.0
2013/04/02 13:30,   -0.9,   -1.4,   -1.1,   -1.2,   -1.6,   -1.6,   -1.8,   -1.8,   -1.7,   -1.4,   -1.4,   -1.3,   -1.2,   -1.3,   -1.2,   -1.0,   -0.6,   -0.6,   -0.3,   -0.2,   -0.6,   -0.5,   -0.5,   -0.5,   -0.5,   -0.4,   -0.4,   -0.3,   -0.3,   -0.4,   -0.4,   -0.2,    0.0,   -0.0,   -0.0,   -0.0,   -0.0,   -0.0,   -0.0,   -0.1,    0.0,    0.0,   -0.0,   -0.0,    0.0,  999.0,  999.0,   -0.0,  999.0,  999.0,   -0.0,    0.1,   -0.0,    0.0,   -0.0,    0.0,    0.0,   -0.0,  999.0,  999.0,   -0.1,   -0.1,   -0.1,  999.0,    0.1,  999.0,   -0.0,    0.0,    0.0,  999.0,  999.0,   -0.0,    0.0,  999.0,  999.0,  999.0,  999.0,  999.0,  999.0,  999.0
2013/04/02 13:40,   -2.1,   -2.3,   -2.1,   -2.1,   -2.4,   -2.2,   -2.2,   -2.2,   -2.0,   -1.8,   -1.7,   -1.6,   -1.4,   -1.3,   -0.9,   -0.5,   -0.3,   -0.3,   -0.2,   -0.1,   -0.3,   -0.2,   -0.4,   -0.2,   -0.1,   -0.3,   -0.1,   -0.1,   -0.2,   -0.1,   -0.1,   -0.0,   -0.0,  999.0,  999.0,  999.0,   -0.0,   -0.0,   -0.0,   -0.3,   -0.0,   -0.1,  999.0,   -0.1,    0.0,    0.1,  999.0,    0.0,  999.0,  999.0,  999.0,    0.0,   -0.0,    0.0,  999.0,    0.0,   -0.0,    0.0,   -0.0,  999.0,   -0.0,   -0.0,   -0.0,    0.1,    0.1,   -0.0,   -0.0,  999.0,  999.0,  999.0,    0.0,   -0.0,  999.0,  999.0,  999.0,  999.0,  999.0,  999.0,  999.0,  999.0
2013/04/02 13:50,   -1.1,   -1.3,   -1.2,   -1.6,   -2.0,   -2.1,   -1.9,   -1.8,   -1.6,   -1.7,   -1.4,   -0.9,   -0.7,   -0.5,   -0.2,    0.0,    0.1,    0.1,    0.0,    0.1,    0.1,    0.1,   -0.0,    0.1,    0.0,    0.3,    0.3,    0.2,    0.3,    0.2,   -0.1,   -0.0,   -0.0,    0.0,  999.0,   -0.0,    0.1,    0.0,   -0.0,   -0.4,    0.0,    0.0,    0.0,    0.0,    0.0,    0.0,   -0.1,   -0.0,  999.0,    0.0,    0.0,    0.0,   -0.0,   -0.0,   -0.0,   -0.0,   -0.0,    0.0,   -0.0,  999.0,  999.0,   -0.0,    0.0,   -0.0,    0.1,    0.0,  999.0,    0.0,  999.0,  999.0,  999.0,   -0.0,  999.0,  999.0,  999.0,  999.0,  999.0,  999.0,  999.0,  999.0
2013/04/02 14:00,   -0.5,   -0.8,   -0.5,   -0.7,   -0.7,   -0.7,   -0.7,   -0.7,   -0.6,   -0.5,   -0.6,   -0.7,   -0.3,   -0.2,    0.1,    0.0,    0.2,    0.3,    0.3,    0.3,    0.4,    0.4,    0.5,    0.5,    0.6,    0.6,    0.6,    0.5,    0.7,  999.0,    0.0,    0.0,   -0.0,   -0.0,   -0.0,  999.0,   -0.0,   -0.0,   -0.0,  999.0,    0.0,   -0.0,   -0.0,    0.0,   -0.0,   -0.0,    0.0,   -0.1,    0.0,    0.0,   -0.0,    0.0,   -0.0,   -0.0,   -0.0,   -0.0,    0.0,   -0.1,    0.0,   -0.0,   -0.0,    0.0,   -0.1,   -0.0,    0.1,  999.0,   -0.0,   -0.0,    0.0,  999.0,    0.1,    0.1,  999.0,  999.0,  999.0,  999.0,  999.0,  999.0,  999.0,  999.0
2013/04/02 14:10,   -0.0,  999.0,  999.0,  999.0,   -0.5,   -0.3,   -1.2,   -1.3,   -1.1,   -1.0,   -1.0,   -1.0,   -0.8,   -0.7,   -0.5,   -0.5,   -0.2,   -0.0,    0.2,    0.3,    0.5,    0.7,    0.5,    0.6,    0.8,    0.9,    1.0,    0.8,    1.1,    1.3,    1.3,  999.0,  999.0,  999.0,  999.0,  999.0,  999.0,  999.0,  999.0,  999.0,  999.0,  999.0,  999.0,    0.0,    0.0,   -0.0,   -0.0,    0.0,   -0.0,   -0.0,    0.0,    0.0,    0.0,   -0.0,    0.0,   -0.0,    0.0,   -0.0,    0.0,    0.0,  999.0,    0.0,    0.1,    0.1,   -0.0,  999.0,    0.0,  999.0,    0.0,  999.0,   -0.0,   -0.1,   -0.1,  999.0,  999.0,  999.0,  999.0,  999.0,  999.0,  999.0
2013/04/02 14:20,   -0.0,   -0.0,    0.0,   -0.1,   -0.2,   -0.5,   -0.6,   -0.5,   -0.6,   -0.6,   -0.5,   -0.4,   -0.4,   -0.4,   -0.2,   -0.2,   -0.2,   -0.1,   -0.0,   -0.0,   -0.0,    0.0,    0.3,    0.2,    0.3,    0.6,    0.7,    0.8,    0.9,    1.0,    1.1,    1.4,  999.0,  999.0,  999.0,  999.0,  999.0,  999.0,   -0.0,   -0.1,    0.0,    0.1,   -0.0,    0.0,    0.0,   -0.0,    0.0,   -0.0,    0.0,    0.0,    0.0,   -0.0,   -0.0,   -0.0,    0.0,    0.0,    0.0,   -0.0,    0.0,   -0.0,   -0.0,    0.0,   -0.0,   -0.0,    0.1,    0.0,    0.0,  999.0,    0.1,   -0.1,    0.0,  999.0,   -0.1,  999.0,  999.0,  999.0,  999.0,  999.0,  999.0,  999.0
2013/04/02 14:30,  999.0,   -0.6,   -0.5,   -0.7,   -0.9,   -1.1,   -1.1,   -1.0,   -1.2,   -1.3,   -1.3,   -1.1,   -1.1,   -1.0,   -0.8,   -0.7,   -0.4,   -0.3,   -0.2,   -0.1,   -0.1,   -0.2,   -0.1,   -0.1,   -0.0,    0.0,    0.2,    0.3,    0.5,    0.6,    0.7,    0.8,    0.9,  999.0,  999.0,  999.0,  999.0,  999.0,  999.0,  999.0,   -0.0,  999.0,    0.0,    0.0,   -0.0,   -0.0,    0.0,    0.0,    0.0,   -0.0,    0.0,  999.0,   -0.0,   -0.0,    0.0,   -0.0,    0.0,    0.0,    0.0,   -0.0,   -0.0,    0.0,    0.0,    0.0,   -0.0,    0.0,   -0.0,   -0.0,    0.0,    0.0,   -0.0,   -0.0,  999.0,  999.0,  999.0,  999.0,  999.0,  999.0,  999.0,  999.0
2013/04/02 14:40,   -0.0,   -0.2,   -0.2,   -0.2,   -0.4,   -0.5,   -0.5,   -0.7,   -0.8,   -1.0,   -1.2,   -1.3,   -1.2,   -1.3,   -1.2,   -1.1,   -0.9,   -0.8,   -0.6,   -0.4,   -0.3,   -0.3,   -0.1,   -0.0,    0.2,    0.2,    0.3,    0.4,    0.6,    0.7,    0.8,    0.9,    0.9,  999.0,  999.0,  999.0,  999.0,  999.0,  999.0,  999.0,    0.1,    0.0,   -0.1,    0.0,    0.0,    0.0,    0.0,   -0.0,    0.0,   -0.0,   -0.0,   -0.0,   -0.0,   -0.0,   -0.0,    0.0,   -0.0,    0.0,    0.0,   -0.0,   -0.0,    0.0,   -0.0,    0.1,   -0.0,   -0.0,  999.0,   -0.0,    0.0,  999.0,   -0.0,   -0.0,  999.0,  999.0,  999.0,  999.0,  999.0,  999.0,  999.0,  999.0
2013/04/02 14:50,    0.0,   -0.1,   -0.0,   -0.1,   -0.2,   -0.3,   -0.4,   -0.4,   -0.4,   -0.7,   -0.6,   -0.8,   -0.9,   -0.9,   -0.8,   -0.6,   -0.5,   -0.4,   -0.2,   -0.2,   -0.2,   -0.1,   -0.1,   -0.1,   -0.1,    0.0,    0.0,    0.3,    0.4,    0.5,    0.5,    0.3,    0.5,    0.0,  999.0,  999.0,  999.0,  999.0,    0.1,   -0.2,    0.2,    0.2,    0.1,   -0.0,    0.0,   -0.0,   -0.0,   -0.0,   -0.0,    0.0,    0.0,   -0.0,   -0.0,   -0.0,    0.0,   -0.0,    0.0,    0.0,    0.0,   -0.0,    0.0,   -0.0,   -0.0,    0.0,    0.0,    0.0,    0.1,    0.0,   -0.1,    0.0,   -0.0,   -0.0,   -0.0,  999.0,  999.0,  999.0,  999.0,  999.0,  999.0,  999.0
2013/04/02 15:00,    0.0,   -0.1,   -0.2,   -0.2,   -0.4,   -0.6,   -0.6,   -0.7,   -0.7,   -0.6,   -0.8,   -0.7,   -0.5,   -0.4,   -0.1,   -0.3,   -0.3,   -0.2,   -0.3,   -0.3,   -0.2,   -0.2,   -0.2,   -0.0,    0.0,    0.1,    0.2,    0.4,    0.5,    0.5,    0.4,    0.1,    0.1,    0.0,    0.0,   -0.0,    0.1,   -0.0,   -0.0,   -0.1,   -0.0,    0.1,    0.3,    0.0,    0.0,    0.0,    0.0,    0.0,    0.0,    0.0,   -0.0,    0.0,   -0.0,   -0.0,    0.0,   -0.0,    0.0,    0.0,    0.0,    0.0,   -0.0,    0.0,    0.1,    0.0,    0.0,   -0.0,   -0.0,   -0.0,    0.1,   -0.0,    0.0,   -0.0,   -0.0,  999.0,  999.0,  999.0,  999.0,  999.0,  999.0,  999.0
2013/04/02 15:10,   -0.0,   -0.2,   -0.2,   -0.1,   -0.2,   -0.2,   -0.2,   -0.3,   -0.4,   -0.5,   -0.5,   -0.6,   -0.6,   -0.5,   -0.5,   -0.4,   -0.3,   -0.2,   -0.3,   -0.5,   -0.4,   -0.1,   -0.3,   -0.3,   -0.3,   -0.2,   -0.2,   -0.2,   -0.1,   -0.1,   -0.1,   -0.0,   -0.0,   -0.1,    0.0,   -0.0,   -0.0,    0.0,   -0.0,   -0.1,   -0.0,    0.0,    0.1,    0.0,   -0.0,    0.0,   -0.0,    0.0,    0.1,    0.0,    0.0,   -0.0,    0.0,    0.0,    0.0,   -0.0,   -0.0,   -0.0,   -0.0,    0.1,   -0.0,    0.0,    0.0,    0.0,   -0.0,   -0.0,    0.0,   -0.1,    0.0,    0.0,    0.0,    0.1,    0.1,  999.0,  999.0,  999.0,  999.0,  999.0,  999.0,  999.0
2013/04/02 15:20,   -0.1,   -0.1,   -0.1,   -0.3,   -0.2,   -0.2,   -0.3,   -0.4,   -0.6,   -0.8,   -0.9,   -0.9,   -0.9,   -0.9,   -0.8,   -0.8,   -0.6,   -0.5,   -0.4,   -0.6,   -0.6,   -0.5,   -0.3,   -0.3,   -0.5,   -0.5,   -0.5,   -0.5,   -0.5,   -0.4,   -0.6,   -0.5,   -0.6,   -0.1,  999.0,  999.0,    0.0,    0.0,   -0.0,   -0.2,   -0.3,   -0.0,    0.0,    0.0,    0.0,    0.1,    0.0,    0.0,    0.0,   -0.0,   -0.0,    0.0,   -0.0,    0.1,    0.0,   -0.0,   -0.0,    0.0,    0.0,    0.0,    0.0,   -0.0,    0.0,   -0.0,    0.0,    0.0,    0.0,   -0.0,    0.0,  999.0,   -0.0,    0.0,    0.0,  999.0,  999.0,  999.0,  999.0,  999.0,  999.0,  999.0
2013/04/02 15:30,   -0.0,   -0.1,   -0.3,   -0.4,   -0.4,   -0.3,   -0.3,   -0.4,   -0.6,   -0.7,   -0.8,   -1.0,   -0.7,   -0.5,   -0.5,   -0.5,   -0.6,   -0.7,   -0.7,   -0.7,   -0.7,   -0.6,   -0.5,   -0.6,   -0.7,   -0.8,   -0.8,   -0.7,   -0.9,   -0.8,   -1.3,  999.0,   -1.6,  999.0,  999.0,  999.0,  999.0,   -0.0,  999.0,   -0.6,   -0.4,   -0.2,   -0.0,    0.0,   -0.0,   -0.0,    0.0,   -0.0,    0.0,    0.0,   -0.0,   -0.0,    0.0,    0.0,   -0.0,   -0.0,   -0.0,    0.0,    0.0,   -0.0,    0.0,    0.0,    0.1,    0.2,    0.1,    0.2,    0.4,    0.3,    0.2,    0.1,    0.0,    0.0,    0.1,  999.0,  999.0,  999.0,  999.0,  999.0,  999.0,  999.0
2013/04/02 15:40,   -0.0,   -0.3,   -0.2,   -0.4,   -0.3,   -0.2,   -0.3,   -0.3,   -0.2,   -0.2,   -0.2,   -0.2,   -0.1,   -0.1,   -0.1,   -0.1,   -0.2,   -0.3,   -0.4,   -0.4,   -0.5,   -0.4,   -0.5,   -0.6,   -0.8,   -1.0,   -1.0,   -1.0,   -1.1,  999.0,  999.0,   -1.7,  999.0,  999.0,  999.0,  999.0,  999.0,   -0.6,   -1.0,   -0.7,   -0.3,    0.1,   -0.0,    0.0,    0.0,   -0.0,    0.0,    0.0,    0.0,    0.1,    0.0,    0.0,    0.0,    0.0,    0.0,    0.1,    0.0,    0.0,    0.0,    0.0,    0.0,    0.0,    0.0,    0.1,    0.1,    0.2,    0.3,    0.3,  999.0,  999.0,    0.0,    0.0,  999.0,  999.0,  999.0,  999.0,  999.0,  999.0,  999.0,  999.0
2013/04/02 15:50,    0.0,   -0.0,   -0.0,   -0.0,   -0.0,   -0.0,    0.0,   -0.1,   -0.1,   -0.1,   -0.1,   -0.0,   -0.0,   -0.0,    0.0,   -0.0,   -0.0,   -0.1,   -0.2,   -0.6,   -0.6,   -0.5,   -0.5,   -0.7,   -1.1,   -1.3,   -1.2,   -1.3,  999.0,  999.0,  999.0,  999.0,  999.0,  999.0,   -1.7,  999.0,  999.0,   -1.1,   -0.4,   -0.4,   -0.1,    0.0,   -0.0,    0.0,   -0.0,    0.0,    0.0,   -0.0,   -0.0,   -0.0,    0.0,    0.0,   -0.0,    0.0,    0.0,    0.0,    0.0,    0.2,    0.1,    0.1,    0.1,    0.1,    0.2,    0.1,    0.0,    0.1,    0.2,    0.0,    0.1,  999.0,  999.0,    0.0,    0.0,  999.0,  999.0,  999.0,  999.0,  999.0,  999.0,  999.0
2013/04/02 16:00,    0.0,   -0.1,   -0.1,   -0.2,   -0.3,   -0.3,   -0.3,   -0.4,   -0.3,   -0.3,   -0.3,   -0.1,    0.0,    0.1,    0.1,    0.1,    0.0,   -0.0,    0.1,    0.1,    0.1,   -0.1,   -0.1,   -0.1,   -0.3,   -0.5,   -0.6,   -0.6,  999.0,  999.0,  999.0,    0.0,   -0.3,   -0.6,  999.0,   -0.4,    0.0,    0.1,    0.2,    0.2,    0.1,    0.1,  999.0,    0.0,   -0.0,    0.0,    0.0,   -0.0,    0.0,    0.0,    0.0,    0.0,   -0.0,    0.1,    0.2,    0.3,    0.3,    0.3,    0.1,    0.0,   -0.0,    0.0,   -0.0,    0.0,    0.0,    0.1,    0.1,    0.1,   -0.0,    0.0,   -0.0,    0.0,    0.1,  999.0,  999.0,  999.0,  999.0,  999.0,  999.0,  999.0
2013/04/02 16:10,    0.0,   -0.3,   -0.1,   -0.6,   -0.5,   -0.6,   -0.7,   -0.6,   -0.3,   -0.5,   -0.5,   -0.5,   -0.1,    0.0,    0.1,   -0.0,   -0.0,   -0.0,   -0.0,   -0.1,   -0.1,   -0.3,   -0.2,   -0.2,   -0.3,   -0.6,   -0.8,   -1.0,   -0.3,   -0.9,   -1.5,   -0.0,   -0.0,  999.0,  999.0,  999.0,   -0.1,   -0.0,   -0.0,   -0.2,   -0.0,    0.0,    0.0,    0.0,    0.0,    0.0,    0.0,   -0.0,    0.0,    0.0,    0.0,    0.0,    0.0,    0.1,    0.3,    0.3,    0.4,    0.3,    0.2,    0.0,    0.1,    0.0,    0.1,   -0.0,   -0.0,    0.1,   -0.0,   -0.1,   -0.0,   -0.0,  999.0,    0.0,  999.0,  999.0,  999.0,  999.0,  999.0,  999.0,  999.0,  999.0
2013/04/02 16:20,    0.0,   -1.3,   -1.2,   -1.6,   -1.4,   -1.1,   -1.3,   -1.2,   -1.0,   -1.4,   -1.1,   -0.7,   -0.3,   -0.2,   -0.1,    0.0,   -0.2,   -0.2,   -0.2,   -0.2,   -0.3,   -0.6,   -0.6,   -0.6,   -0.7,   -0.7,   -1.0,   -1.2,  999.0,   -1.1,   -1.8,   -0.0,   -0.1,  999.0,   -0.0,   -0.0,    0.0,    0.1,   -0.0,  999.0,    0.0,   -0.0,   -0.1,    0.0,    0.0,    0.1,    0.0,   -0.0,    0.0,   -0.0,    0.0,   -0.0,   -0.0,    0.0,    0.3,    0.3,    0.2,    0.2,    0.0,   -0.0,    0.0,    0.0,   -0.0,   -0.1,    0.0,   -0.0,   -0.0,   -0.2,   -0.0,  999.0,  999.0,  999.0,  999.0,  999.0,  999.0,  999.0,  999.0,  999.0,  999.0,  999.0
2013/04/02 16:30,    0.0,   -0.0,   -0.1,   -0.0,   -0.0,    0.1,    0.1,    0.0,   -0.1,   -0.1,   -0.0,    0.1,   -0.0,    0.0,    0.1,   -0.0,    0.0,    0.0,   -0.1,   -0.1,   -0.2,   -0.3,   -0.2,   -0.0,   -0.1,   -0.3,   -0.3,   -0.2,   -0.0,   -0.1,    0.0,    0.0,    0.1,   -0.0,    0.1,    0.0,    0.0,  999.0,   -0.0,   -0.1,    0.0,    0.1,    0.1,   -0.0,    0.1,    0.1,    0.0,    0.0,   -0.0,    0.1,    0.0,    0.0,    0.0,    0.1,    0.2,    0.1,   -0.1,   -0.2,   -0.1,   -0.2,   -0.2,   -0.2,   -0.1,   -0.2,   -0.3,   -0.6,   -1.0,   -1.2,   -0.9,   -0.9,   -0.8,   -0.7,   -0.7,   -0.7,  999.0,  999.0,  999.0,  999.0,  999.0,  999.0
2013/04/02 16:40,   -0.0,    0.0,   -0.0,   -0.0,    0.0,    0.1,    0.1,    0.1,    0.0,    0.0,    0.1,    0.1,    0.1,    0.0,    0.0,    0.1,    0.1,    0.0,    0.1,    0.2,    0.1,    0.3,    0.3,    0.4,    0.4,    0.4,    0.3,    0.3,    0.5,  999.0,   -0.0,    0.0,    0.3,    0.3,    0.0,    0.0,  999.0,   -0.0,   -0.0,   -0.1,    0.0,    0.1,   -0.0,   -0.0,    0.0,    0.0,   -0.0,   -0.0,  999.0,    0.0,   -0.0,   -0.1,   -0.0,   -0.0,   -0.1,   -0.3,   -0.3,   -0.5,   -0.6,   -0.8,   -0.8,   -0.9,   -0.9,   -0.9,   -0.9,   -1.0,   -1.0,   -1.0,   -1.0,   -1.1,   -1.1,   -0.9,   -1.1,   -1.0,   -0.7,  999.0,  999.0,  999.0,  999.0,  999.0
2013/04/02 16:50,    0.0,    0.0,    0.0,   -0.0,    0.0,    0.1,    0.1,    0.1,   -0.0,    0.1,    0.2,    0.1,    0.1,    0.2,    0.1,    0.1,    0.1,    0.1,    0.1,    0.2,    0.1,    0.2,    0.2,    0.2,    0.3,    0.2,    0.1,    0.0,    0.1,    0.0,   -0.0,   -0.0,   -0.0,    0.1,    0.0,   -0.0,   -0.0,    0.2,   -0.0,   -0.2,   -0.0,   -0.1,   -0.0,    0.0,    0.0,  999.0,  999.0,    0.0,   -0.0,   -0.0,    0.3,    0.1,   -0.1,   -0.3,   -0.5,   -0.6,   -0.6,   -0.6,   -0.7,   -0.7,   -0.7,   -0.8,   -0.7,   -0.8,   -0.7,   -0.9,   -1.1,   -1.0,   -1.0,   -1.0,   -0.9,   -0.9,   -0.8,   -0.6,   -0.8,   -0.8,  999.0,   -0.9,  999.0,  999.0
2013/04/02 17:00,    0.0,    0.0,    0.0,    0.0,    0.1,    0.1,    0.1,    0.0,    0.1,    0.1,    0.1,    0.1,    0.1,    0.1,    0.1,    0.1,    0.3,    0.2,    0.2,    0.2,    0.1,    0.4,  999.0,    0.4,    0.2,    0.2,    0.1,    0.2,    0.1,   -0.1,    0.0,    0.1,    0.1,  999.0,  999.0,  999.0,  999.0,    0.0,   -0.0,   -0.1,   -0.0,    0.0,  999.0,  999.0,   -0.1,  999.0,    0.0,    0.1,    0.4,    0.1,   -0.1,   -0.4,   -0.7,   -1.0,   -1.2,   -1.2,   -1.2,   -1.2,   -1.4,   -1.4,   -1.4,   -1.4,   -1.4,   -1.4,   -1.2,   -1.3,   -1.4,   -1.4,   -1.3,   -1.2,   -1.2,   -1.0,   -1.2,   -1.5,   -1.3,   -1.1,   -1.2,   -1.0,   -0.9,   -1.1
2013/04/02 17:10,    0.0,    0.0,    0.0,   -0.0,    0.0,    0.0,    0.1,    0.0,    0.0,    0.0,    0.1,    0.1,    0.0,    0.1,    0.1,    0.1,    0.1,    0.1,    0.1,    0.2,    0.1,    0.0,    0.1,  999.0,    0.5,    0.2,    0.0,    0.0,    0.2,    0.1,    0.1,   -0.0,    0.3,    0.2,   -0.0,  999.0,  999.0,   -0.0,    0.0,   -0.2,    0.0,    0.0,    0.0,    0.0,   -0.0,   -0.2,   -0.2,   -0.6,   -0.7,   -1.1,   -1.3,   -1.4,   -1.6,   -1.8,   -1.7,   -1.7,   -1.7,   -1.7,   -1.7,   -1.7,   -1.7,   -1.7,   -1.8,   -1.8,   -1.5,   -1.6,   -1.5,   -1.5,   -1.6,   -1.5,   -1.3,   -1.5,   -1.4,   -1.5,   -1.4,   -1.4,   -1.3,   -1.1,   -1.0,   -1.2
2013/04/02 17:20,    0.0,    0.0,   -0.0,   -0.0,   -0.0,    0.0,    0.0,    0.0,   -0.0,    0.0,    0.0,    0.0,    0.1,    0.1,    0.0,    0.0,    0.1,    0.1,    0.0,    0.2,    0.2,    0.1,    0.1,    0.4,    0.4,    0.2,    0.2,    0.1,    0.3,    0.1,    0.0,   -0.0,    0.0,    0.1,    0.2,    0.2,  999.0,   -0.0,   -0.0,  999.0,   -0.3,   -0.5,   -0.8,   -0.8,   -1.0,   -1.0,   -1.1,   -1.2,   -1.4,   -1.5,   -1.7,   -1.8,   -1.8,   -1.8,   -1.7,   -1.7,   -1.7,   -1.7,   -1.7,   -1.6,   -1.6,   -1.6,   -1.5,   -1.5,   -1.5,   -1.4,   -1.5,   -1.5,   -1.4,   -1.5,   -1.3,   -1.2,   -1.2,   -0.9,   -1.1,   -1.0,   -0.8,   -0.7,  999.0,  999.0
2013/04/02 17:30,   -0.0,    0.0,   -0.0,   -0.0,   -0.0,    0.0,    0.0,   -0.0,    0.0,    0.0,    0.0,    0.0,    0.0,    0.1,    0.0,    0.0,    0.0,    0.0,    0.0,    0.0,    0.0,    0.1,    0.1,    0.1,  999.0,    0.2,    0.1,    0.0,    0.1,   -0.0,    0.0,   -0.0,   -0.0,   -0.1,    0.0,    0.2,  999.0,    0.0,   -0.2,   -0.4,   -0.5,   -0.6,   -0.5,   -0.5,   -0.5,   -0.6,   -0.7,   -0.9,   -1.1,   -1.1,   -1.3,   -1.3,   -1.4,   -1.5,   -1.5,   -1.6,   -1.6,   -1.6,   -1.6,   -1.6,   -1.7,   -1.6,   -1.6,   -1.5,   -1.4,   -1.4,   -1.4,   -1.2,   -1.2,   -1.2,   -1.1,   -1.2,   -1.2,   -1.0,   -1.1,   -1.0,   -1.1,   -1.0,  999.0,  999.0
2013/04/02 17:40,   -0.0,   -0.0,   -0.0,   -0.0,    0.0,    0.0,   -0.0,   -0.0,   -0.0,   -0.0,   -0.0,   -0.0,   -0.0,   -0.0,   -0.0,   -0.0,   -0.0,   -0.0,    0.0,   -0.0,   -0.1,   -0.1,   -0.0,   -0.2,   -0.3,   -0.2,   -0.2,   -0.1,   -0.1,   -0.1,    0.0,   -0.0,   -0.1,   -0.4,   -0.3,   -0.6,   -0.5,   -0.5,   -0.6,   -0.6,   -0.5,   -0.5,   -0.4,   -0.4,   -0.5,   -0.5,   -0.7,   -0.9,   -1.0,   -1.0,   -1.1,   -1.1,   -1.2,   -1.2,   -1.3,   -1.3,   -1.4,   -1.3,   -1.3,   -1.2,   -1.3,   -1.3,   -1.2,   -1.3,   -1.2,   -1.2,   -1.1,   -1.2,   -1.2,   -1.2,   -1.1,   -1.0,   -1.0,   -0.9,   -0.8,   -1.0,   -0.8,   -0.9,   -0.9,   -0.5
2013/04/02 17:50,    0.0,   -0.0,    0.0,   -0.0,    0.0,   -0.0,    0.0,    0.0,   -0.0,   -0.0,   -0.0,   -0.0,   -0.0,    0.0,   -0.0,   -0.0,    0.0,   -0.0,    0.0,   -0.0,   -0.0,   -0.0,   -0.0,   -0.2,   -0.2,   -0.1,   -0.1,   -0.1,   -0.3,   -0.1,   -0.1,   -0.1,  999.0,   -1.4,   -1.3,   -1.2,   -1.1,   -0.9,   -0.8,   -0.7,   -0.6,   -0.5,   -0.5,   -0.5,   -0.4,   -0.5,   -0.7,   -0.9,   -0.9,   -0.9,   -1.0,   -1.0,   -1.1,   -1.2,   -1.2,   -1.1,   -1.0,   -0.9,   -1.0,   -0.9,   -0.8,   -0.8,   -0.8,   -0.8,   -0.7,   -0.9,   -0.8,   -0.8,   -0.8,   -0.8,   -0.8,   -0.7,   -0.6,   -0.5,   -0.4,  999.0,  999.0,  999.0,  999.0,  999.0
2013/04/02 18:00,   -0.0,    0.0,    0.0,    0.0,    0.0,    0.0,    0.0,    0.0,    0.0,   -0.0,   -0.0,    0.0,    0.0,    0.0,    0.0,    0.0,   -0.0,    0.0,    0.0,    0.0,    0.0,   -0.0,   -0.0,   -0.0,   -0.0,   -0.0,    0.0,   -0.0,   -0.0,   -0.1,   -0.4,   -0.7,   -1.6,   -1.7,   -1.6,   -1.3,   -1.0,   -0.9,   -0.9,   -0.9,   -0.9,   -0.9,   -0.9,   -0.9,   -0.9,   -1.0,   -1.0,   -1.0,   -1.1,   -1.1,   -1.2,   -1.2,   -1.2,   -1.1,   -1.1,   -1.0,   -0.8,   -0.8,   -0.8,   -0.7,   -0.7,   -0.8,   -0.6,   -0.5,   -0.5,   -0.6,   -0.6,   -0.4,   -0.4,  999.0,  999.0,  999.0,  999.0,  999.0,  999.0,  999.0,  999.0,  999.0,  999.0,  999.0
2013/04/02 18:10,    0.0,    0.0,    0.0,   -0.0,   -0.0,    0.0,   -0.0,    0.0,    0.0,    0.0,    0.0,    0.0,    0.1,    0.1,    0.1,    0.0,    0.0,    0.0,    0.0,    0.0,    0.0,    0.0,    0.0,    0.1,    0.1,    0.1,    0.0,    0.2,    0.3,    0.1,   -0.3,   -0.6,   -1.6,   -1.4,   -1.3,   -1.4,   -1.3,   -1.3,   -1.2,   -1.2,   -1.1,   -1.1,   -1.2,   -1.1,   -1.1,   -1.1,   -1.1,   -1.2,   -1.4,   -1.4,   -1.4,   -1.3,   -1.3,   -1.3,   -1.2,   -1.2,   -1.2,   -1.2,   -1.2,   -1.1,   -1.1,   -1.1,   -1.1,   -1.1,   -1.1,   -1.2,   -1.2,   -0.8,   -0.7,  999.0,  999.0,  999.0,   -0.1,  999.0,  999.0,  999.0,  999.0,  999.0,  999.0,  999.0
2013/04/02 18:20,    0.0,    0.0,    0.0,   -0.0,   -0.0,   -0.0,    0.0,    0.0,    0.0,    0.0,    0.0,    0.0,    0.0,    0.1,    0.1,    0.0,    0.0,    0.0,    0.0,    0.0,    0.1,    0.0,    0.1,    0.2,    0.2,    0.4,    0.3,  999.0,   -0.2,   -0.8,   -1.0,   -1.4,   -1.5,   -1.4,   -1.4,   -1.2,   -1.2,   -1.1,   -1.2,   -1.2,   -1.2,   -1.2,   -1.2,   -1.2,   -1.3,   -1.4,   -1.4,   -1.4,   -1.5,   -1.5,   -1.4,   -1.4,   -1.4,   -1.3,   -1.3,   -1.3,   -1.3,   -1.2,   -1.2,   -1.2,   -1.2,   -1.1,   -1.1,  999.0,   -0.8,   -1.2,   -0.9,   -1.1,   -1.2,   -1.1,  999.0,  999.0,  999.0,   -0.1,   -0.1,  999.0,  999.0,  999.0,  999.0,  999.0
2013/04/02 18:30,   -0.0,    0.0,   -0.0,    0.0,    0.0,   -0.0,    0.0,    0.0,    0.0,    0.1,    0.1,    0.1,    0.0,    0.1,    0.0,    0.0,    0.0,    0.0,    0.0,    0.0,    0.0,    0.0,    0.0,    0.0,   -0.0,    0.1,    0.2,    0.2,   -0.0,    0.1,   -0.5,   -0.7,  999.0,   -1.0,   -1.2,   -1.0,   -1.1,   -1.2,   -1.3,   -1.4,   -1.5,   -1.5,   -1.5,   -1.4,   -1.3,   -1.3,   -1.3,   -1.3,   -1.4,   -1.4,   -1.4,   -1.5,   -1.5,   -1.5,   -1.5,   -1.4,   -1.4,   -1.5,   -1.5,   -1.5,   -1.5,   -1.5,   -1.4,   -1.5,   -1.3,   -1.3,   -1.4,   -1.5,  999.0,  999.0,  999.0,  999.0,  999.0,   -0.0,  999.0,  999.0,  999.0,  999.0,  999.0,  999.0
2013/04/02 18:40,   -0.0,    0.0,    0.0,    0.0,    0.0,    0.0,    0.0,    0.0,    0.0,    0.0,    0.0,    0.0,    0.0,    0.0,    0.0,   -0.0,    0.0,    0.0,    0.0,    0.0,    0.0,    0.0,    0.1,    0.1,    0.0,    0.0,   -0.0,   -0.0,   -0.0,   -0.1,   -0.2,   -0.1,    0.0,  999.0,  999.0,   -0.4,   -0.7,   -0.6,   -0.7,   -0.8,   -0.9,   -1.1,   -1.1,   -1.1,   -1.1,   -1.2,   -1.3,   -1.4,   -1.5,   -1.6,   -1.6,   -1.6,   -1.6,   -1.6,   -1.6,   -1.6,   -1.6,   -1.6,   -1.6,   -1.5,   -1.6,   -1.4,   -1.5,   -1.5,   -1.3,   -1.4,   -1.5,   -1.2,   -1.4,   -1.5,  999.0,  999.0,  999.0,  999.0,  999.0,  999.0,  999.0,  999.0,  999.0,  999.0
2013/04/02 18:50,   -0.0,    0.0,   -0.0,    0.0,    0.0,   -0.0,   -0.0,    0.0,   -0.0,   -0.0,   -0.0,    0.0,   -0.0,   -0.0,    0.0,    0.0,    0.0,    0.0,    0.0,    0.0,    0.0,    0.0,    0.1,    0.1,    0.0,    0.0,   -0.1,   -0.1,   -0.3,   -0.2,   -0.3,   -0.1,   -0.5,   -0.8,   -1.2,   -1.4,   -1.4,   -1.2,   -1.0,   -1.1,   -1.0,   -1.0,   -1.0,   -1.1,   -1.1,   -1.1,   -1.2,   -1.2,   -1.3,   -1.3,   -1.4,   -1.5,   -1.5,   -1.5,   -1.5,   -1.5,   -1.5,   -1.5,   -1.5,   -1.5,   -1.4,   -1.4,   -1.4,   -1.4,   -1.3,   -1.3,   -1.3,   -1.1,  999.0,  999.0,  999.0,  999.0,  999.0,  999.0,  999.0,  999.0,  999.0,  999.0,  999.0,  999.0
2013/04/02 19:00,    0.0,    0.1,   -0.1,   -0.0,    0.0,    0.0,   -0.0,   -0.0,    0.1,    0.0,    0.1,    0.0,    0.0,    0.1,    0.1,    0.1,    0.0,    0.0,    0.0,    0.0,    0.0,    0.1,    0.1,    0.0,    0.0,    0.0,   -0.5,   -0.9,   -1.2,   -1.3,   -1.3,   -1.3,   -1.3,   -1.2,   -1.2,   -1.1,   -1.0,   -1.0,   -0.9,   -0.8,   -0.7,   -0.7,   -0.7,   -0.7,   -0.7,   -0.7,   -0.7,   -0.8,   -0.9,   -1.0,   -1.0,   -1.1,   -1.1,   -1.1,   -1.1,   -1.1,   -1.1,   -1.1,   -1.0,   -1.0,   -1.0,   -0.9,   -0.9,   -0.9,   -0.9,   -0.9,   -0.9,   -0.7,   -0.7,  999.0,  999.0,  999.0,  999.0,    0.1,  999.0,  999.0,  999.0,  999.0,  999.0,  999.0
2013/04/02 19:10,    0.0,   -0.0,    0.0,   -0.1,   -0.1,   -0.2,   -0.4,   -0.5,   -0.4,   -0.7,   -0.6,   -0.6,   -0.6,   -0.3,   -0.4,   -0.4,   -0.5,   -0.2,   -0.1,   -0.1,   -0.0,   -0.1,   -0.0,   -0.2,   -0.4,   -1.1,   -1.2,   -1.3,   -1.4,   -1.5,   -1.5,   -1.4,   -1.3,   -1.3,   -1.3,   -1.2,   -1.2,   -1.1,   -1.0,   -0.8,   -0.7,   -0.5,   -0.7,   -0.7,   -0.7,   -0.6,   -0.6,   -0.6,   -0.7,   -0.7,   -0.8,   -0.8,   -0.8,   -0.8,   -0.9,   -0.8,   -0.8,   -0.8,   -0.8,   -0.7,   -0.7,   -0.7,   -0.8,   -0.7,   -0.6,   -0.7,  999.0,  999.0,  999.0,  999.0,  999.0,  999.0,  999.0,  999.0,  999.0,  999.0,  999.0,  999.0,  999.0,  999.0
2013/04/02 19:20,    0.0,   -0.5,   -0.4,   -0.7,   -0.6,   -1.0,   -0.8,   -0.8,   -0.6,   -0.4,   -0.3,   -0.3,   -0.2,   -0.2,   -0.1,   -0.1,   -0.1,   -0.1,   -0.0,   -0.0,   -0.1,   -0.1,   -0.3,   -0.4,   -0.6,   -0.9,   -1.0,   -1.1,   -1.2,   -1.2,   -1.3,   -1.3,   -1.2,   -1.2,   -1.2,   -1.1,   -1.1,   -1.0,   -0.9,   -0.9,   -1.0,   -1.0,   -0.9,   -0.8,   -0.6,   -0.5,   -0.5,   -0.5,   -0.6,   -0.6,   -0.7,   -0.7,   -0.7,   -0.7,   -0.7,   -0.7,   -0.7,   -0.6,   -0.6,   -0.5,   -0.6,   -0.5,   -0.5,   -0.8,   -0.4,  999.0,   -0.3,  999.0,  999.0,  999.0,  999.0,  999.0,  999.0,  999.0,  999.0,  999.0,  999.0,  999.0,  999.0,  999.0
2013/04/02 19:30,   -0.0,   -0.2,   -0.3,   -0.1,   -0.1,   -0.1,   -0.0,   -0.0,   -0.1,   -0.1,   -0.1,   -0.1,   -0.1,   -0.0,   -0.0,   -0.0,   -0.0,   -0.0,   -0.1,   -0.1,   -0.2,   -0.3,   -0.7,   -0.8,   -0.9,   -1.0,   -1.0,   -1.1,   -1.1,   -1.1,   -1.1,   -1.2,   -1.1,   -1.1,   -1.0,   -1.0,   -0.9,   -0.9,   -0.9,   -0.8,   -0.8,   -0.7,   -0.6,   -0.4,   -0.3,   -0.3,   -0.4,   -0.5,   -0.5,   -0.5,   -0.5,   -0.5,   -0.4,   -0.4,   -0.3,   -0.4,   -0.3,   -0.3,   -0.3,   -0.2,   -0.0,   -0.2,   -0.2,  999.0,    0.0,  999.0,  999.0,  999.0,  999.0,  999.0,  999.0,  999.0,  999.0,  999.0,  999.0,  999.0,  999.0,  999.0,  999.0,  999.0
2013/04/02 19:40,   -0.1,   -0.0,  999.0,   -1.4,   -1.3,   -1.5,   -1.7,   -1.6,   -1.4,   -1.4,   -1.0,   -0.9,   -0.8,  999.0,  999.0,  999.0,  999.0,   -1.2,   -0.7,   -0.4,   -0.4,   -0.5,   -0.6,   -0.6,   -0.9,   -1.0,   -1.0,   -1.1,   -1.2,   -1.2,   -1.2,   -1.1,   -1.1,   -1.1,   -1.0,   -1.0,   -1.0,   -1.0,   -0.9,   -0.9,   -0.8,   -0.7,   -0.6,   -0.6,   -0.6,   -0.6,   -0.7,   -0.7,   -0.7,   -0.7,   -0.6,   -0.6,   -0.6,   -0.5,   -0.5,   -0.5,   -0.5,   -0.6,   -0.3,   -0.3,   -0.4,   -0.4,   -0.3,   -0.0,   -0.0,    0.1,  999.0,  999.0,  999.0,  999.0,  999.0,  999.0,  999.0,  999.0,  999.0,  999.0,  999.0,  999.0,  999.0,  999.0
2013/04/02 19:50,   -0.1,   -1.4,   -1.5,   -1.5,   -1.3,   -1.4,   -1.4,   -1.3,   -1.4,   -1.2,   -1.1,   -1.0,   -0.9,   -0.8,   -0.7,   -0.6,   -0.5,   -0.3,  999.0,   -0.5,   -0.4,   -0.5,   -0.7,   -0.8,   -0.8,   -0.8,   -0.9,   -0.9,   -1.0,   -1.1,   -1.1,   -1.1,   -1.1,   -1.1,   -1.0,   -1.0,   -0.9,   -0.9,   -0.8,   -0.8,   -0.7,   -0.6,   -0.6,   -0.6,   -0.6,   -0.6,   -0.6,   -0.6,   -0.6,   -0.5,   -0.6,   -0.5,   -0.5,   -0.5,   -0.5,   -0.5,   -0.6,   -0.4,   -0.4,   -0.4,   -0.5,   -0.3,    0.0,   -0.1,   -0.2,   -0.0,  999.0,  999.0,  999.0,  999.0,  999.0,  999.0,  999.0,  999.0,  999.0,  999.0,  999.0,  999.0,  999.0,  999.0
2013/04/02 20:00,   -1.1,   -1.5,   -1.4,   -1.4,   -1.4,   -1.4,   -1.4,   -1.3,   -1.3,   -1.3,   -1.3,   -1.3,   -1.3,   -1.2,   -1.1,   -1.1,   -0.8,   -1.1,   -1.5,   -1.0,   -0.9,   -1.0,   -1.0,   -1.0,   -1.0,   -1.0,   -1.0,   -0.9,   -1.0,   -1.0,   -1.0,   -1.0,   -1.0,   -1.0,   -1.0,   -1.0,   -1.0,   -0.9,   -1.0,   -1.0,   -0.9,   -0.9,   -0.8,   -0.8,   -0.8,   -0.8,   -0.7,   -0.7,   -0.6,   -0.7,   -0.7,   -0.7,   -0.7,   -0.6,   -0.6,   -0.6,   -0.6,   -0.5,   -0.5,  999.0,  999.0,    0.0,    0.0,   -0.0,   -0.0,   -0.1,    0.0,  999.0,  999.0,  999.0,  999.0,  999.0,  999.0,  999.0,  999.0,  999.0,  999.0,  999.0,  999.0,  999.0
2013/04/02 20:10,   -1.6,   -1.6,   -2.2,   -1.6,   -1.7,   -1.6,   -1.6,   -2.1,   -2.1,   -2.4,   -2.6,   -2.5,   -2.3,   -2.0,   -1.8,   -2.0,   -2.7,  999.0,  999.0,   -1.5,   -1.4,   -1.2,   -1.0,   -1.0,   -0.8,   -0.7,   -0.7,   -0.8,   -0.9,   -0.8,   -0.9,   -0.9,   -1.0,   -1.0,   -1.0,   -1.0,   -1.0,   -1.0,   -1.0,   -1.0,   -1.0,   -0.9,   -0.9,   -0.8,   -0.8,   -0.7,   -0.7,   -0.7,   -0.8,   -0.8,   -0.9,   -0.8,   -0.8,   -0.8,   -0.8,   -0.8,   -0.8,   -0.7,  999.0,  999.0,  999.0,  999.0,  999.0,    0.0,   -0.0,   -0.0,  999.0,  999.0,  999.0,  999.0,  999.0,  999.0,  999.0,  999.0,  999.0,  999.0,  999.0,  999.0,  999.0,  999.0
2013/04/02 20:20,   -3.3,   -3.3,   -3.0,   -3.2,   -3.2,   -3.5,   -3.4,   -3.3,   -3.2,   -3.4,   -3.1,   -3.6,   -3.1,   -3.4,   -3.4,   -3.4,   -3.1,   -2.3,   -1.8,   -1.6,   -1.4,   -1.3,   -1.2,   -1.0,   -1.0,   -1.0,   -0.9,   -1.0,   -1.0,   -1.0,   -1.0,   -1.0,   -1.0,   -1.0,   -1.1,   -1.1,   -1.0,   -1.0,   -1.0,   -0.9,   -0.9,   -0.9,   -0.9,   -0.8,   -0.8,   -0.7,   -0.7,   -0.8,   -0.8,   -0.8,   -0.8,   -0.8,   -0.8,   -0.7,   -0.7,   -0.6,   -0.6,   -0.6,   -0.5,   -0.5,   -0.5,   -0.3,   -0.5,   -0.3,   -0.3,  999.0,  999.0,  999.0,  999.0,  999.0,  999.0,  999.0,  999.0,  999.0,  999.0,  999.0,  999.0,  999.0,  999.0,  999.0
2013/04/02 20:30,  999.0,   -3.0,   -3.1,   -3.2,   -3.2,   -3.2,   -3.1,   -3.1,   -3.1,   -3.1,   -3.4,   -3.2,   -3.2,   -3.2,   -2.9,   -2.8,   -2.8,   -2.1,   -1.7,   -1.5,   -1.4,   -1.2,   -1.2,   -1.2,   -1.1,   -1.1,   -1.0,   -1.1,   -1.1,   -1.0,   -1.0,   -1.0,   -1.0,   -1.0,   -1.1,   -1.1,   -1.1,   -1.1,   -1.0,   -1.0,   -1.0,   -0.9,   -0.9,   -0.9,   -0.8,   -0.7,   -0.7,   -0.7,   -0.7,   -0.8,   -0.7,   -0.7,   -0.7,   -0.7,   -0.6,   -0.6,   -0.7,   -0.6,   -0.6,   -0.6,   -0.5,   -0.5,   -0.5,  999.0,  999.0,  999.0,  999.0,  999.0,  999.0,  999.0,  999.0,  999.0,  999.0,  999.0,  999.0,  999.0,  999.0,  999.0,  999.0,  999.0
2013/04/02 20:40,   -3.2,   -3.2,   -3.2,   -3.2,   -3.2,   -3.2,   -3.2,   -3.3,   -3.4,   -3.4,   -3.3,   -3.4,   -3.3,   -3.4,   -3.3,   -3.5,   -3.1,   -2.0,   -1.4,   -1.3,   -1.2,   -1.2,   -1.2,   -1.1,   -1.1,   -1.0,   -1.0,   -1.0,   -1.0,   -1.0,   -1.0,   -1.0,   -1.1,   -1.1,   -1.2,   -1.2,   -1.1,   -1.1,   -1.1,   -1.1,   -1.0,   -1.0,   -1.0,   -1.0,   -0.9,   -0.8,   -0.8,   -0.9,   -0.9,   -0.9,   -1.0,   -0.9,   -0.9,   -0.9,   -0.8,   -0.8,   -0.8,   -0.8,   -0.8,   -0.6,   -0.6,  999.0,  999.0,  999.0,  999.0,  999.0,  999.0,  999.0,  999.0,  999.0,  999.0,  999.0,  999.0,  999.0,  999.0,  999.0,  999.0,  999.0,  999.0,  999.0
2013/04/02 20:50,   -3.8,   -3.7,   -3.7,   -3.7,   -3.7,   -3.6,   -3.6,   -3.6,   -3.7,   -3.7,   -3.7,   -3.8,   -3.9,   -3.9,   -4.0,   -4.1,   -2.9,   -2.1,   -1.5,   -1.3,   -1.2,   -1.2,   -1.1,   -1.1,   -1.0,   -1.0,   -1.1,   -1.0,   -1.0,   -1.0,   -1.1,   -1.1,   -1.1,   -1.1,   -1.1,   -1.0,   -1.0,   -0.9,   -0.9,   -0.9,   -0.9,   -0.9,   -0.9,   -0.8,   -0.8,   -0.8,   -0.8,   -0.8,   -0.9,   -0.9,   -0.9,   -0.9,   -0.9,   -0.9,   -0.9,   -0.9,   -0.7,   -0.7,   -0.7,   -0.6,  999.0,  999.0,  999.0,  999.0,  999.0,  999.0,  999.0,  999.0,  999.0,  999.0,  999.0,  999.0,  999.0,  999.0,  999.0,  999.0,  999.0,  999.0,  999.0,  999.0
2013/04/02 21:00,   -3.8,   -3.7,   -3.8,   -3.7,   -3.6,   -3.6,   -3.5,   -3.6,   -3.5,   -3.6,   -3.6,   -3.6,   -3.7,   -3.7,   -3.7,   -3.8,   -3.1,   -2.0,   -1.5,   -1.4,   -1.3,   -1.2,   -1.2,   -1.2,   -1.2,   -1.1,   -1.1,   -1.1,   -1.1,   -1.1,   -1.1,   -1.1,   -1.1,   -1.0,   -1.0,   -0.9,   -0.9,   -0.8,   -0.8,   -0.8,   -0.8,   -0.8,   -0.8,   -0.7,   -0.7,   -0.7,   -0.7,   -0.7,   -0.8,   -0.8,   -0.8,   -0.8,   -0.8,   -0.8,   -0.7,   -0.5,   -0.7,   -0.7,  999.0,  999.0,  999.0,  999.0,  999.0,  999.0,  999.0,  999.0,  999.0,  999.0,  999.0,  999.0,  999.0,  999.0,  999.0,  999.0,  999.0,  999.0,  999.0,  999.0,  999.0,  999.0
2013/04/02 21:10,   -3.6,   -3.7,   -3.8,   -3.7,   -3.7,   -3.6,   -3.6,   -3.6,   -3.6,   -3.6,   -3.7,   -3.7,   -3.7,   -3.7,   -3.6,   -3.7,   -3.1,   -2.1,   -1.5,   -1.3,   -1.3,   -1.2,   -1.1,   -1.0,   -1.1,   -1.1,   -1.0,   -1.0,   -1.0,   -1.0,   -1.0,   -0.9,   -0.9,   -0.9,   -0.9,   -0.9,   -0.9,   -0.8,   -0.8,   -0.8,   -0.8,   -0.7,   -0.7,   -0.7,   -0.6,   -0.7,   -0.7,   -0.7,   -0.7,   -0.7,   -0.8,   -0.7,   -0.6,   -0.6,   -0.7,   -0.5,   -0.1,  999.0,  999.0,  999.0,  999.0,  999.0,  999.0,  999.0,  999.0,  999.0,  999.0,  999.0,  999.0,  999.0,  999.0,  999.0,  999.0,  999.0,  999.0,  999.0,  999.0,  999.0,  999.0,  999.0
2013/04/02 21:20,   -3.8,   -3.9,   -3.8,   -3.8,   -3.7,   -3.7,   -3.7,   -3.6,   -3.6,   -3.5,   -3.5,   -3.5,   -3.4,   -3.3,   -3.3,   -3.3,   -3.1,   -2.0,   -1.5,   -1.3,   -1.2,   -1.1,   -1.0,   -1.0,   -1.0,   -1.0,   -1.0,   -0.9,   -0.9,   -0.9,   -1.0,   -1.0,   -1.0,   -1.0,   -0.9,   -1.0,   -0.9,   -0.9,   -0.9,   -0.9,   -0.9,   -0.8,   -0.8,   -0.7,   -0.7,   -0.7,   -0.7,   -0.7,   -0.8,   -0.8,   -0.8,   -0.8,   -0.8,   -0.7,   -0.5,   -0.1,  999.0,  999.0,  999.0,  999.0,  999.0,  999.0,  999.0,  999.0,    0.0,  999.0,  999.0,  999.0,  999.0,  999.0,  999.0,  999.0,  999.0,  999.0,  999.0,  999.0,  999.0,  999.0,  999.0,  999.0
2013/04/02 21:30,   -3.5,   -3.5,   -3.5,   -3.4,   -3.5,   -3.5,   -3.5,   -3.5,   -3.4,   -3.4,   -3.4,   -3.4,   -3.4,   -3.4,   -3.4,   -3.3,   -3.1,   -2.1,   -1.3,   -1.2,   -1.1,   -1.0,   -1.0,   -1.0,   -1.0,   -0.9,   -0.9,   -0.9,   -0.9,   -0.9,   -1.0,   -1.0,   -1.0,   -1.0,   -1.0,   -1.0,   -0.9,   -0.9,   -0.9,   -0.8,   -0.8,   -0.7,   -0.7,   -0.7,   -0.7,   -0.7,   -0.7,   -0.6,   -0.6,   -0.6,   -0.6,   -0.6,   -0.5,  999.0,  999.0,   -0.1,   -0.0,  999.0,  999.0,  999.0,  999.0,  999.0,  999.0,  999.0,   -0.0,  999.0,  999.0,  999.0,  999.0,  999.0,  999.0,  999.0,  999.0,  999.0,  999.0,  999.0,  999.0,  999.0,  999.0,  999.0
2013/04/02 21:40,   -3.4,   -3.3,   -3.3,   -3.2,   -3.3,   -3.2,   -3.2,   -3.2,   -3.3,   -3.2,   -3.2,   -3.4,   -3.3,   -3.2,   -3.1,   -3.1,   -3.0,   -2.2,   -1.5,   -1.2,   -1.3,   -1.0,   -0.8,   -0.8,   -0.8,   -0.9,   -0.9,   -0.9,   -0.9,   -0.9,   -0.9,   -0.9,   -0.9,   -0.9,   -0.8,   -0.8,   -0.8,   -0.7,   -0.7,   -0.8,   -0.8,   -0.8,   -0.8,   -0.8,   -0.8,   -0.8,   -0.8,   -0.8,   -0.8,   -0.8,   -0.8,   -0.8,   -0.8,   -0.6,  999.0,   -0.0,    0.0,  999.0,  999.0,  999.0,  999.0,  999.0,  999.0,  999.0,  999.0,  999.0,  999.0,  999.0,  999.0,  999.0,  999.0,  999.0,  999.0,  999.0,  999.0,  999.0,  999.0,  999.0,  999.0,  999.0
2013/04/02 21:50,   -3.5,   -3.6,   -3.6,   -3.7,   -3.7,   -3.6,   -3.5,   -3.5,   -3.5,   -3.6,   -3.7,   -3.8,   -3.8,   -3.7,   -3.6,   -3.7,   -3.0,   -1.9,   -1.5,   -1.4,   -1.3,   -1.3,   -1.2,   -1.2,   -1.2,   -1.1,   -1.0,   -1.0,   -1.0,   -1.0,   -0.9,   -0.9,   -0.8,   -0.8,   -0.8,   -0.7,   -0.7,   -0.7,   -0.7,   -0.7,   -0.8,   -0.8,   -0.8,   -0.8,   -0.8,   -0.8,   -0.8,   -0.8,   -0.8,   -0.7,   -0.7,   -0.7,   -0.6,  999.0,  999.0,    0.0,   -0.0,  999.0,  999.0,  999.0,  999.0,  999.0,  999.0,  999.0,  999.0,  999.0,  999.0,  999.0,  999.0,  999.0,  999.0,  999.0,  999.0,  999.0,  999.0,  999.0,  999.0,  999.0,  999.0,  999.0
2013/04/02 22:00,   -3.8,   -3.7,   -3.7,   -3.6,   -3.7,   -4.1,   -3.9,   -3.8,   -4.0,   -4.0,   -4.1,   -4.1,   -4.1,   -4.1,   -4.2,   -4.2,   -2.7,  999.0,   -1.2,   -1.1,   -1.1,   -1.1,   -1.1,   -1.1,   -1.0,   -1.0,   -1.0,   -1.0,   -1.0,   -0.9,   -0.8,   -0.8,   -0.8,   -0.7,   -0.7,   -0.7,   -0.6,   -0.6,   -0.7,   -0.7,   -0.6,   -0.7,   -0.6,   -0.6,   -0.6,   -0.6,   -0.5,   -0.5,   -0.4,   -0.4,   -0.4,   -0.3,   -0.0,   -0.3,   -0.1,   -0.0,   -0.1,  999.0,  999.0,  999.0,  999.0,  999.0,  999.0,  999.0,  999.0,  999.0,  999.0,  999.0,  999.0,  999.0,  999.0,  999.0,  999.0,  999.0,  999.0,  999.0,  999.0,  999.0,  999.0,  999.0
2013/04/02 22:10,   -3.8,   -3.8,   -3.7,   -3.5,   -3.7,   -3.6,   -4.1,   -4.1,   -4.1,   -4.2,   -4.2,   -4.3,   -4.3,   -4.3,   -4.3,   -4.3,   -3.2,  999.0,  999.0,   -1.3,   -1.3,   -1.3,   -1.2,   -1.2,   -1.0,   -1.0,   -0.9,   -0.9,   -0.8,   -0.7,   -0.7,   -0.6,   -0.7,   -0.7,   -0.7,   -0.7,   -0.7,   -0.7,   -0.7,   -0.7,   -0.7,   -0.7,   -0.7,   -0.7,   -0.7,   -0.6,   -0.6,   -0.6,   -0.6,   -0.6,   -0.5,   -0.5,   -0.5,   -0.5,   -0.5,   -0.1,   -0.1,  999.0,  999.0,  999.0,  999.0,  999.0,  999.0,  999.0,  999.0,  999.0,  999.0,  999.0,  999.0,  999.0,  999.0,  999.0,  999.0,  999.0,  999.0,  999.0,  999.0,  999.0,  999.0,  999.0
2013/04/02 22:20,   -5.0,   -5.0,   -5.0,   -4.9,   -4.8,   -4.9,   -4.9,   -4.9,   -4.9,   -4.9,   -4.8,   -4.8,   -4.8,   -4.7,   -4.8,   -4.6,   -3.2,  999.0,  999.0,   -1.1,   -1.2,   -1.1,   -1.0,   -1.0,   -0.9,   -0.9,   -0.8,   -0.8,   -0.7,   -0.7,   -0.6,   -0.6,   -0.7,   -0.7,   -0.7,   -0.7,   -0.7,   -0.7,   -0.7,   -0.7,   -0.7,   -0.6,   -0.6,   -0.6,   -0.6,   -0.5,   -0.5,   -0.5,   -0.4,   -0.4,   -0.3,   -0.3,   -0.3,   -0.4,   -0.2,   -0.3,  999.0,  999.0,  999.0,  999.0,  999.0,  999.0,  999.0,  999.0,  999.0,  999.0,  999.0,  999.0,  999.0,  999.0,  999.0,  999.0,    0.0,    0.0,  999.0,  999.0,  999.0,  999.0,  999.0,  999.0
2013/04/02 22:30,   -4.1,   -4.2,   -4.3,   -4.3,   -4.4,   -4.5,   -4.5,   -4.5,   -4.4,   -4.5,   -4.5,   -4.4,   -4.4,   -4.3,   -4.3,   -4.2,   -3.4,  999.0,   -1.3,   -1.1,   -1.0,   -1.1,   -1.1,   -1.1,   -1.1,   -1.1,   -1.1,   -1.1,   -1.1,   -1.1,   -1.1,   -1.0,   -1.0,   -1.0,   -1.0,   -1.0,   -1.0,   -1.0,   -1.0,   -0.9,   -0.9,   -0.8,   -0.8,   -0.8,   -0.8,   -0.7,   -0.5,   -0.5,   -0.5,   -0.4,   -0.3,   -0.4,   -0.3,   -0.3,  999.0,  999.0,  999.0,  999.0,  999.0,  999.0,  999.0,    0.1,  999.0,    0.0,   -0.1,   -0.0,  999.0,  999.0,  999.0,  999.0,   -0.0,  999.0,   -0.1,    0.1,    0.0,  999.0,  999.0,  999.0,  999.0,  999.0
2013/04/02 22:40,   -4.9,   -4.9,   -5.0,   -5.1,   -5.0,   -5.0,   -4.9,   -4.9,   -4.8,   -4.8,   -4.7,   -4.7,   -4.7,   -4.5,   -4.5,   -4.6,   -3.8,   -2.4,  999.0,   -1.1,   -1.0,   -1.0,   -1.0,   -1.0,   -1.0,   -1.0,   -1.0,   -1.0,   -1.0,   -1.0,   -1.0,   -0.9,   -0.9,   -0.8,   -0.8,   -0.8,   -0.8,   -0.8,   -0.8,   -0.7,   -0.7,   -0.7,   -0.7,   -0.6,   -0.6,   -0.4,   -0.4,   -0.2,   -0.2,   -0.0,   -0.2,   -0.3,  999.0,    0.0,  999.0,  999.0,   -0.0,  999.0,  999.0,  999.0,  999.0,    0.0,    0.1,    0.0,    0.0,    0.0,  999.0,  999.0,  999.0,  999.0,  999.0,  999.0,   -0.0,   -0.0,  999.0,  999.0,  999.0,  999.0,  999.0,  999.0
2013/04/02 22:50,   -4.2,   -4.1,   -4.1,   -4.2,   -4.1,   -4.0,   -4.1,   -4.0,   -4.0,   -4.1,   -4.0,   -4.0,   -3.9,   -3.9,   -3.9,   -3.9,   -4.0,   -2.8,  999.0,   -1.1,   -1.0,   -1.1,   -1.0,   -1.0,   -0.9,   -0.8,   -0.8,   -0.8,   -0.8,   -0.9,   -0.8,   -0.8,   -0.8,   -0.8,   -0.7,   -0.6,   -0.7,   -0.6,   -0.6,   -0.5,   -0.6,   -0.6,   -0.5,   -0.5,   -0.4,   -0.3,   -0.2,   -0.2,   -0.2,   -0.0,  999.0,  999.0,  999.0,  999.0,  999.0,  999.0,  999.0,  999.0,  999.0,  999.0,  999.0,  999.0,  999.0,  999.0,    0.0,  999.0,  999.0,  999.0,  999.0,  999.0,  999.0,  999.0,  999.0,  999.0,  999.0,  999.0,  999.0,  999.0,  999.0,  999.0
2013/04/02 23:00,   -4.0,   -3.9,   -3.9,   -3.8,   -3.8,   -3.8,   -3.8,   -3.8,   -3.8,   -3.7,   -3.7,   -3.7,   -3.7,   -3.6,   -3.6,   -3.6,   -3.6,   -2.7,  999.0,  999.0,   -1.0,   -1.0,   -0.9,   -0.9,   -0.9,   -0.8,   -0.8,   -0.8,   -0.9,   -0.9,   -1.0,   -0.9,   -0.9,   -1.0,   -1.0,   -0.9,   -1.0,   -1.0,   -0.9,   -0.9,   -0.9,   -0.8,   -0.8,   -0.6,   -0.5,   -0.4,   -0.2,   -0.4,   -0.3,   -0.3,   -0.1,  999.0,  999.0,  999.0,   -0.0,    0.0,   -0.0,   -0.0,  999.0,  999.0,   -0.1,   -0.0,   -0.0,    0.1,   -0.0,  999.0,  999.0,  999.0,  999.0,  999.0,  999.0,  999.0,  999.0,  999.0,  999.0,  999.0,  999.0,  999.0,  999.0,  999.0
2013/04/02 23:10,   -3.4,   -3.4,   -3.4,   -3.4,   -3.4,   -3.5,   -3.5,   -3.4,   -3.3,   -3.3,   -3.3,   -3.3,   -3.3,   -3.2,   -3.3,   -3.2,   -3.2,  999.0,  999.0,   -1.3,   -1.1,   -1.1,   -1.1,   -1.1,   -1.2,   -1.2,   -1.2,   -1.2,   -1.2,   -1.2,   -1.1,   -1.2,   -1.2,   -1.2,   -1.2,   -1.2,   -1.3,   -1.2,   -1.2,   -1.2,   -1.1,   -1.0,   -1.0,   -0.9,   -0.8,   -0.8,   -0.8,   -0.6,   -0.5,   -0.4,   -0.2,  999.0,    0.0,  999.0,  999.0,   -0.1,   -0.0,  999.0,   -0.0,    0.1,    0.0,   -0.0,   -0.0,    0.0,   -0.0,   -0.0,  999.0,  999.0,  999.0,  999.0,  999.0,  999.0,  999.0,    0.1,  999.0,  999.0,  999.0,  999.0,  999.0,  999.0
2013/04/02 23:20,   -3.6,   -3.5,   -3.5,   -3.5,   -3.5,   -3.4,   -3.3,   -3.4,   -3.3,   -3.4,   -3.4,   -3.3,   -3.5,   -3.5,   -3.4,   -3.5,   -3.5,   -2.0,  999.0,   -1.5,   -1.5,   -1.5,   -1.5,   -1.5,   -1.5,   -1.5,   -1.5,   -1.5,   -1.5,   -1.5,   -1.5,   -1.5,   -1.5,   -1.4,   -1.4,   -1.4,   -1.4,   -1.3,   -1.2,   -1.1,   -1.1,   -1.1,   -1.1,   -1.0,   -1.0,   -0.8,   -0.7,   -0.7,   -0.6,   -0.6,   -0.5,    0.0,   -0.0,   -0.0,   -0.0,    0.0,    0.0,  999.0,  999.0,  999.0,  999.0,   -0.0,    0.1,   -0.0,    0.0,   -0.0,  999.0,  999.0,  999.0,  999.0,  999.0,  999.0,   -0.0,    0.0,  999.0,  999.0,  999.0,  999.0,  999.0,  999.0
2013/04/02 23:30,   -3.3,   -3.3,   -3.3,   -3.7,   -3.6,   -3.8,   -3.6,   -3.8,   -3.9,   -3.9,   -3.8,   -3.7,   -3.7,   -3.6,   -3.8,   -3.9,   -3.6,   -2.2,   -1.6,   -1.5,   -1.5,   -1.6,   -1.6,   -1.5,   -1.5,   -1.5,   -1.5,   -1.5,   -1.5,   -1.5,   -1.6,   -1.6,   -1.6,   -1.5,   -1.5,   -1.5,   -1.4,   -1.4,   -1.4,   -1.3,   -1.2,   -1.2,   -1.0,   -0.8,   -0.7,   -0.7,   -0.6,   -0.6,   -0.5,   -0.6,   -0.5,   -0.0,    0.0,    0.0,   -0.0,  999.0,   -0.0,  999.0,  999.0,  999.0,  999.0,  999.0,  999.0,  999.0,  999.0,  999.0,  999.0,  999.0,  999.0,  999.0,  999.0,  999.0,   -0.1,   -0.0,   -0.0,  999.0,  999.0,  999.0,  999.0,  999.0
2013/04/02 23:40,   -4.5,   -4.8,   -4.9,   -4.5,   -4.6,   -5.1,   -4.8,   -5.0,   -5.0,   -5.0,   -4.9,   -4.8,   -4.9,   -5.0,   -5.1,   -4.8,   -3.8,   -2.3,   -2.0,   -1.8,   -1.6,   -1.5,   -1.5,   -1.5,   -1.5,   -1.4,   -1.4,   -1.3,   -1.3,   -1.2,   -1.2,   -1.2,   -1.2,   -1.1,   -1.1,   -1.0,   -0.9,   -0.9,   -0.9,   -0.9,   -0.9,   -0.9,   -0.8,   -0.8,   -0.8,   -0.8,   -0.7,   -0.7,   -0.6,   -0.7,   -0.3,  999.0,  999.0,    0.0,  999.0,  999.0,  999.0,  999.0,   -0.1,  999.0,  999.0,  999.0,  999.0,  999.0,   -0.0,  999.0,  999.0,  999.0,  999.0,  999.0,  999.0,  999.0,    0.0,    0.0,  999.0,  999.0,  999.0,  999.0,  999.0,  999.0
2013/04/02 23:50,   -6.2,   -6.2,   -6.2,   -6.2,   -6.2,   -6.2,   -6.1,   -6.1,   -6.0,   -5.9,   -5.9,   -5.8,   -5.8,   -5.8,   -5.8,   -5.3,   -3.7,   -2.7,   -2.2,   -1.9,   -1.6,   -1.4,   -1.3,   -1.2,   -1.1,   -1.2,   -1.1,   -1.1,   -1.2,   -1.2,   -1.2,   -1.1,   -1.2,   -1.3,   -1.3,   -1.3,   -1.3,   -1.3,   -1.4,   -1.3,   -1.4,   -1.4,   -1.5,   -1.4,   -1.4,   -1.2,   -1.1,   -1.0,   -0.9,   -1.0,   -1.0,   -1.0,   -0.9,   -1.1,   -1.0,   -0.8,  999.0,  999.0,  999.0,  999.0,  999.0,  999.0,  999.0,  999.0,   -0.1,  999.0,  999.0,  999.0,  999.0,  999.0,  999.0,  999.0,   -0.1,   -0.1,  999.0,  999.0,  999.0,  999.0,  999.0,  999.0
